Time,TemperatureF,DewpointF,PressureIn,WindDirection,WindDirectionDegrees,WindSpeedMPH,WindSpeedGustMPH,Humidity,HourlyPrecipIn,Conditions,Clouds,dailyrainin,SoftwareType,DateUTC
2013-01-24 00:01:00,41.3,32.6,30.17,SW,223,3.0,3.0,71,0.00,,,0.00,Wunderground v.1.15,2013-01-24 05:01:00,
2013-01-24 00:02:00,41.4,32.7,30.17,SW,224,3.0,3.0,71,0.00,,,0.00,Wunderground v.1.15,2013-01-24 05:02:00,
2013-01-24 00:06:00,41.5,32.8,30.17,SW,223,0.0,3.0,71,0.00,,,0.00,Wunderground v.1.15,2013-01-24 05:06:00,
2013-01-24 00:07:00,41.5,32.8,30.17,SW,223,0.0,3.0,71,0.00,,,0.00,Wunderground v.1.15,2013-01-24 05:07:00,
2013-01-24 00:10:00,41.5,32.8,30.17,SW,224,3.0,3.0,71,0.00,,,0.00,Wunderground v.1.15,2013-01-24 05:10:00,
2013-01-24 00:12:00,41.5,32.8,30.17,SW,224,3.0,3.0,71,0.00,,,0.00,Wunderground v.1.15,2013-01-24 05:12:00,
2013-01-24 00:18:00,41.6,32.9,30.17,SW,224,0.0,3.0,71,0.00,,,0.00,Wunderground v.1.15,2013-01-24 05:18:00,
2013-01-24 00:19:00,41.6,32.9,30.17,SW,224,1.0,3.0,71,0.00,,,0.00,Wunderground v.1.15,2013-01-24 05:19:00,
2013-01-24 00:20:00,41.5,32.8,30.17,SW,224,2.0,2.0,71,0.00,,,0.00,Wunderground v.1.15,2013-01-24 05:20:00,
2013-01-24 00:25:00,41.6,32.9,30.17,SW,224,0.0,3.0,71,0.00,,,0.00,Wunderground v.1.15,2013-01-24 05:25:00,
2013-01-24 00:26:00,41.6,32.9,30.17,SW,223,3.0,3.0,71,0.00,,,0.00,Wunderground v.1.15,2013-01-24 05:26:00,
2013-01-24 00:28:00,41.6,32.9,30.17,SW,224,2.0,3.0,71,0.00,,,0.00,Wunderground v.1.15,2013-01-24 05:28:00,
2013-01-24 00:31:00,41.6,32.9,30.17,SW,224,2.0,2.0,71,0.00,,,0.00,Wunderground v.1.15,2013-01-24 05:31:00,
2013-01-24 00:32:00,41.5,32.8,30.17,SW,223,1.0,2.0,71,0.00,,,0.00,Wunderground v.1.15,2013-01-24 05:32:00,
2013-01-24 00:37:00,41.4,33.0,30.17,SW,223,0.0,2.0,72,0.00,,,0.00,Wunderground v.1.15,2013-01-24 05:37:00,
2013-01-24 00:39:00,41.2,32.9,30.17,SW,224,2.0,3.0,72,0.00,,,0.00,Wunderground v.1.15,2013-01-24 05:39:00,
2013-01-24 00:40:00,41.2,32.9,30.17,SW,223,1.0,1.0,72,0.00,,,0.00,Wunderground v.1.15,2013-01-24 05:40:00,
2013-01-24 00:45:00,41.1,32.8,30.17,SW,223,0.0,1.0,72,0.00,,,0.00,Wunderground v.1.15,2013-01-24 05:45:00,
2013-01-24 00:46:00,41.1,33.1,30.17,SW,224,0.0,1.0,73,0.00,,,0.00,Wunderground v.1.15,2013-01-24 05:46:00,
2013-01-24 00:49:00,40.9,32.9,30.17,SW,224,0.0,3.0,73,0.00,,,0.00,Wunderground v.1.15,2013-01-24 05:49:00,
2013-01-24 00:52:00,40.9,32.9,30.18,SW,223,2.0,2.0,73,0.00,,,0.00,Wunderground v.1.15,2013-01-24 05:52:00,
2013-01-24 00:53:00,40.9,32.9,30.18,SW,224,0.0,2.0,73,0.00,,,0.00,Wunderground v.1.15,2013-01-24 05:53:00,
2013-01-24 00:55:00,40.9,32.9,30.17,SW,224,0.0,2.0,73,0.00,,,0.00,Wunderground v.1.15,2013-01-24 05:55:00,
2013-01-24 00:56:00,40.9,32.9,30.17,SW,223,0.0,2.0,73,0.00,,,0.00,Wunderground v.1.15,2013-01-24 05:56:00,
2013-01-24 01:01:00,40.7,33.1,30.17,SW,224,1.0,1.0,74,0.00,,,0.00,Wunderground v.1.15,2013-01-24 06:01:00,
2013-01-24 01:02:00,40.8,33.2,30.17,SW,223,2.0,2.0,74,0.00,,,0.00,Wunderground v.1.15,2013-01-24 06:02:00,
2013-01-24 01:05:00,40.8,33.2,30.17,SW,223,1.0,2.0,74,0.00,,,0.00,Wunderground v.1.15,2013-01-24 06:05:00,
2013-01-24 01:07:00,40.9,33.2,30.17,SW,224,2.0,2.0,74,0.00,,,0.00,Wunderground v.1.15,2013-01-24 06:07:00,
2013-01-24 01:11:00,41.0,33.3,30.17,SW,223,4.0,4.0,74,0.00,,,0.00,Wunderground v.1.15,2013-01-24 06:11:00,
2013-01-24 01:12:00,41.1,33.4,30.17,SW,223,2.0,4.0,74,0.00,,,0.00,Wunderground v.1.15,2013-01-24 06:12:00,
2013-01-24 01:16:00,41.2,33.5,30.17,SW,224,2.0,4.0,74,0.00,,,0.00,Wunderground v.1.15,2013-01-24 06:16:00,
2013-01-24 01:20:00,41.2,33.2,30.17,SW,224,0.0,2.0,73,0.00,,,0.00,Wunderground v.1.15,2013-01-24 06:20:00,
2013-01-24 01:21:00,41.1,33.1,30.17,SW,224,1.0,2.0,73,0.00,,,0.00,Wunderground v.1.15,2013-01-24 06:21:00,
2013-01-24 01:23:00,41.1,33.4,30.17,SW,224,3.0,3.0,74,0.00,,,0.00,Wunderground v.1.15,2013-01-24 06:23:00,
2013-01-24 01:27:00,41.1,33.4,30.17,SW,223,1.0,3.0,74,0.00,,,0.00,Wunderground v.1.15,2013-01-24 06:27:00,
2013-01-24 01:28:00,41.0,33.3,30.17,SW,224,0.0,3.0,74,0.00,,,0.00,Wunderground v.1.15,2013-01-24 06:28:00,
2013-01-24 01:30:00,41.0,33.7,30.17,SW,224,3.0,3.0,75,0.00,,,0.00,Wunderground v.1.15,2013-01-24 06:30:00,
2013-01-24 01:33:00,41.1,34.1,30.16,SW,223,2.0,3.0,76,0.00,,,0.00,Wunderground v.1.15,2013-01-24 06:33:00,
2013-01-24 01:34:00,41.1,33.8,30.16,SW,224,3.0,3.0,75,0.00,,,0.00,Wunderground v.1.15,2013-01-24 06:34:00,
2013-01-24 01:36:00,41.1,33.8,30.16,SW,224,0.0,3.0,75,0.00,,,0.00,Wunderground v.1.15,2013-01-24 06:36:00,
2013-01-24 01:39:00,41.1,34.1,30.16,SW,224,1.0,3.0,76,0.00,,,0.00,Wunderground v.1.15,2013-01-24 06:39:00,
2013-01-24 01:40:00,41.1,34.1,30.16,SW,223,1.0,2.0,76,0.00,,,0.00,Wunderground v.1.15,2013-01-24 06:40:00,
2013-01-24 01:45:00,41.0,34.3,30.16,SW,223,1.0,2.0,77,0.00,,,0.00,Wunderground v.1.15,2013-01-24 06:45:00,
2013-01-24 01:46:00,41.0,34.3,30.16,SW,224,0.0,2.0,77,0.00,,,0.00,Wunderground v.1.15,2013-01-24 06:46:00,
2013-01-24 01:49:00,41.2,34.9,30.17,SW,224,2.0,2.0,78,0.00,,,0.00,Wunderground v.1.15,2013-01-24 06:49:00,
2013-01-24 01:52:00,41.6,35.2,30.17,SW,224,0.0,1.0,78,0.00,,,0.00,Wunderground v.1.15,2013-01-24 06:52:00,
2013-01-24 01:55:00,41.8,35.1,30.17,SW,224,1.0,2.0,77,0.00,,,0.00,Wunderground v.1.15,2013-01-24 06:55:00,
2013-01-24 01:57:00,41.9,35.2,30.16,SW,224,0.0,2.0,77,0.00,,,0.00,Wunderground v.1.15,2013-01-24 06:57:00,
2013-01-24 02:00:00,42.0,35.3,30.16,SW,224,3.0,3.0,77,0.00,,,0.00,Wunderground v.1.15,2013-01-24 07:00:00,
2013-01-24 02:01:00,42.1,35.7,30.16,SW,224,0.0,3.0,78,0.00,,,0.00,Wunderground v.1.15,2013-01-24 07:01:00,
2013-01-24 02:02:00,42.2,35.5,30.16,SW,224,4.0,6.0,77,0.00,,,0.00,Wunderground v.1.15,2013-01-24 07:02:00,
2013-01-24 02:05:00,42.4,36.0,30.17,SW,223,0.0,6.0,78,0.00,,,0.00,Wunderground v.1.15,2013-01-24 07:05:00,
2013-01-24 02:06:00,42.4,35.7,30.16,SW,224,0.0,6.0,77,0.00,,,0.00,Wunderground v.1.15,2013-01-24 07:06:00,
2013-01-24 02:07:00,42.5,35.8,30.17,SW,224,0.0,6.0,77,0.00,,,0.00,Wunderground v.1.15,2013-01-24 07:07:00,
2013-01-24 02:10:00,42.6,35.9,30.17,SW,224,1.0,2.0,77,0.00,,,0.00,Wunderground v.1.15,2013-01-24 07:10:00,
2013-01-24 02:11:00,42.6,35.9,30.17,SW,224,0.0,2.0,77,0.00,,,0.00,Wunderground v.1.15,2013-01-24 07:11:00,
2013-01-24 02:13:00,42.7,36.0,30.17,SW,224,1.0,2.0,77,0.00,,,0.00,Wunderground v.1.15,2013-01-24 07:13:00,
2013-01-24 02:15:00,42.7,36.0,30.16,SW,224,0.0,2.0,77,0.00,,,0.00,Wunderground v.1.15,2013-01-24 07:15:00,
2013-01-24 02:16:00,42.8,36.1,30.17,SW,224,1.0,3.0,77,0.00,,,0.00,Wunderground v.1.15,2013-01-24 07:16:00,
2013-01-24 02:17:00,42.8,36.1,30.17,SW,224,2.0,3.0,77,0.00,,,0.00,Wunderground v.1.15,2013-01-24 07:17:00,
2013-01-24 02:18:00,42.9,36.2,30.17,SW,224,0.0,3.0,77,0.00,,,0.00,Wunderground v.1.15,2013-01-24 07:18:00,
2013-01-24 02:20:00,43.0,36.3,30.17,SW,224,1.0,3.0,77,0.00,,,0.00,Wunderground v.1.15,2013-01-24 07:20:00,
2013-01-24 02:22:00,43.1,36.4,30.17,SW,224,0.0,3.0,77,0.00,,,0.00,Wunderground v.1.15,2013-01-24 07:22:00,
2013-01-24 02:23:00,43.1,36.4,30.17,SW,224,1.0,3.0,77,0.00,,,0.00,Wunderground v.1.15,2013-01-24 07:23:00,
2013-01-24 02:26:00,43.3,36.2,30.17,SW,223,3.0,3.0,76,0.00,,,0.00,Wunderground v.1.15,2013-01-24 07:26:00,
2013-01-24 02:27:00,43.3,36.2,30.17,SW,224,0.0,3.0,76,0.00,,,0.00,Wunderground v.1.15,2013-01-24 07:27:00,
2013-01-24 02:28:00,43.3,36.2,30.17,SW,224,2.0,3.0,76,0.00,,,0.00,Wunderground v.1.15,2013-01-24 07:28:00,
2013-01-24 02:31:00,43.4,36.3,30.17,SW,223,1.0,3.0,76,0.00,,,0.00,Wunderground v.1.15,2013-01-24 07:31:00,
2013-01-24 02:32:00,43.4,36.3,30.17,SW,223,2.0,3.0,76,0.00,,,0.00,Wunderground v.1.15,2013-01-24 07:32:00,
2013-01-24 02:33:00,43.5,36.1,30.17,SW,223,2.0,3.0,75,0.00,,,0.00,Wunderground v.1.15,2013-01-24 07:33:00,
2013-01-24 02:36:00,43.4,36.0,30.17,SW,224,1.0,3.0,75,0.00,,,0.00,Wunderground v.1.15,2013-01-24 07:36:00,
2013-01-24 02:37:00,43.4,36.3,30.17,SW,224,0.0,3.0,76,0.00,,,0.00,Wunderground v.1.15,2013-01-24 07:37:00,
2013-01-24 02:38:00,43.4,36.3,30.16,SW,224,1.0,3.0,76,0.00,,,0.00,Wunderground v.1.15,2013-01-24 07:38:00,
2013-01-24 02:41:00,43.3,36.2,30.17,SW,224,1.0,2.0,76,0.00,,,0.00,Wunderground v.1.15,2013-01-24 07:41:00,
2013-01-24 02:42:00,43.3,36.2,30.17,SW,224,0.0,3.0,76,0.00,,,0.00,Wunderground v.1.15,2013-01-24 07:42:00,
2013-01-24 02:44:00,43.3,36.2,30.17,SW,223,0.0,3.0,76,0.00,,,0.00,Wunderground v.1.15,2013-01-24 07:44:00,
2013-01-24 02:47:00,43.3,36.2,30.17,SW,223,0.0,3.0,76,0.00,,,0.00,Wunderground v.1.15,2013-01-24 07:47:00,
2013-01-24 02:48:00,43.3,36.2,30.17,SW,224,0.0,3.0,76,0.00,,,0.00,Wunderground v.1.15,2013-01-24 07:48:00,
2013-01-24 02:49:00,43.3,36.2,30.17,SW,223,1.0,3.0,76,0.00,,,0.00,Wunderground v.1.15,2013-01-24 07:49:00,
2013-01-24 02:52:00,43.3,36.2,30.17,SW,224,1.0,1.0,76,0.00,,,0.00,Wunderground v.1.15,2013-01-24 07:52:00,
2013-01-24 02:53:00,43.3,36.2,30.17,SW,223,1.0,1.0,76,0.00,,,0.00,Wunderground v.1.15,2013-01-24 07:53:00,
2013-01-24 02:54:00,43.2,36.1,30.17,SW,223,0.0,1.0,76,0.00,,,0.00,Wunderground v.1.15,2013-01-24 07:54:00,
2013-01-24 02:57:00,43.1,36.0,30.17,SW,224,1.0,1.0,76,0.00,,,0.00,Wunderground v.1.15,2013-01-24 07:57:00,
2013-01-24 02:58:00,43.1,36.0,30.17,SW,224,0.0,1.0,76,0.00,,,0.00,Wunderground v.1.15,2013-01-24 07:58:00,
2013-01-24 02:59:00,43.0,36.0,30.17,SW,223,2.0,2.0,76,0.00,,,0.00,Wunderground v.1.15,2013-01-24 07:59:00,
2013-01-24 03:00:00,43.0,36.0,30.17,SW,223,3.0,3.0,76,0.00,,,0.00,Wunderground v.1.15,2013-01-24 08:00:00,
2013-01-24 03:02:00,42.9,35.9,30.17,SW,223,2.0,3.0,76,0.00,,,0.00,Wunderground v.1.15,2013-01-24 08:02:00,
2013-01-24 03:03:00,42.9,35.9,30.17,SW,224,0.0,3.0,76,0.00,,,0.00,Wunderground v.1.15,2013-01-24 08:03:00,
2013-01-24 03:05:00,42.8,36.1,30.17,SW,224,2.0,3.0,77,0.00,,,0.00,Wunderground v.1.15,2013-01-24 08:05:00,
2013-01-24 03:07:00,42.8,36.4,30.17,SW,224,2.0,3.0,78,0.00,,,0.00,Wunderground v.1.15,2013-01-24 08:07:00,
2013-01-24 03:09:00,42.7,36.0,30.17,SW,223,0.0,3.0,77,0.00,,,0.00,Wunderground v.1.15,2013-01-24 08:09:00,
2013-01-24 03:10:00,42.7,36.0,30.17,SW,224,1.0,1.0,77,0.00,,,0.00,Wunderground v.1.15,2013-01-24 08:10:00,
2013-01-24 03:12:00,42.7,36.3,30.17,SW,224,0.0,2.0,78,0.00,,,0.00,Wunderground v.1.15,2013-01-24 08:12:00,
2013-01-24 03:14:00,42.7,36.3,30.17,SW,224,1.0,2.0,78,0.00,,,0.00,Wunderground v.1.15,2013-01-24 08:14:00,
2013-01-24 03:15:00,42.8,36.4,30.17,SW,224,2.0,2.0,78,0.00,,,0.00,Wunderground v.1.15,2013-01-24 08:15:00,
2013-01-24 03:17:00,42.8,36.4,30.17,SW,223,0.0,2.0,78,0.00,,,0.00,Wunderground v.1.15,2013-01-24 08:17:00,
2013-01-24 03:19:00,42.8,36.4,30.17,SW,224,1.0,2.0,78,0.00,,,0.00,Wunderground v.1.15,2013-01-24 08:19:00,
2013-01-24 03:21:00,42.8,36.4,30.17,SW,224,1.0,1.0,78,0.00,,,0.00,Wunderground v.1.15,2013-01-24 08:21:00,
2013-01-24 03:22:00,42.8,36.4,30.17,SW,224,0.0,1.0,78,0.00,,,0.00,Wunderground v.1.15,2013-01-24 08:22:00,
2013-01-24 03:25:00,42.7,36.3,30.17,SW,224,0.0,1.0,78,0.00,,,0.00,Wunderground v.1.15,2013-01-24 08:25:00,
2013-01-24 03:26:00,42.7,36.3,30.17,SW,224,0.0,1.0,78,0.00,,,0.00,Wunderground v.1.15,2013-01-24 08:26:00,
2013-01-24 03:28:00,42.7,36.6,30.17,SW,223,1.0,3.0,79,0.00,,,0.00,Wunderground v.1.15,2013-01-24 08:28:00,
2013-01-24 03:30:00,42.6,36.5,30.17,SW,224,0.0,3.0,79,0.00,,,0.00,Wunderground v.1.15,2013-01-24 08:30:00,
2013-01-24 03:31:00,42.6,36.5,30.17,SW,224,1.0,3.0,79,0.00,,,0.00,Wunderground v.1.15,2013-01-24 08:31:00,
2013-01-24 03:33:00,42.6,36.5,30.17,SW,224,0.0,4.0,79,0.00,,,0.00,Wunderground v.1.15,2013-01-24 08:33:00,
2013-01-24 03:36:00,42.6,36.5,30.17,SW,224,2.0,4.0,79,0.00,,,0.00,Wunderground v.1.15,2013-01-24 08:36:00,
2013-01-24 03:37:00,42.6,36.5,30.17,SW,223,0.0,4.0,79,0.00,,,0.00,Wunderground v.1.15,2013-01-24 08:37:00,
2013-01-24 03:39:00,42.6,36.5,30.17,SW,224,0.0,4.0,79,0.00,,,0.00,Wunderground v.1.15,2013-01-24 08:39:00,
2013-01-24 03:42:00,42.6,36.5,30.17,SW,224,0.0,2.0,79,0.00,,,0.00,Wunderground v.1.15,2013-01-24 08:42:00,
2013-01-24 03:44:00,42.6,36.5,30.17,SW,223,0.0,3.0,79,0.00,,,0.00,Wunderground v.1.15,2013-01-24 08:44:00,
2013-01-24 03:47:00,42.5,36.8,30.18,SW,223,0.0,3.0,80,0.00,,,0.00,Wunderground v.1.15,2013-01-24 08:47:00,
2013-01-24 03:49:00,42.6,36.9,30.18,SW,224,1.0,3.0,80,0.00,,,0.00,Wunderground v.1.15,2013-01-24 08:49:00,
2013-01-24 03:52:00,42.5,36.4,30.18,SW,224,0.0,1.0,79,0.00,,,0.00,Wunderground v.1.15,2013-01-24 08:52:00,
2013-01-24 03:54:00,42.5,36.4,30.18,SW,224,0.0,1.0,79,0.00,,,0.00,Wunderground v.1.15,2013-01-24 08:54:00,
2013-01-24 03:57:00,42.5,36.4,30.18,SW,223,0.0,1.0,79,0.00,,,0.00,Wunderground v.1.15,2013-01-24 08:57:00,
2013-01-24 04:00:00,42.4,36.7,30.18,SW,224,1.0,1.0,80,0.00,,,0.00,Wunderground v.1.15,2013-01-24 09:00:00,
2013-01-24 04:02:00,42.3,36.6,30.18,SW,224,1.0,2.0,80,0.00,,,0.00,Wunderground v.1.15,2013-01-24 09:02:00,
2013-01-24 04:05:00,42.4,36.7,30.18,SW,224,0.0,2.0,80,0.00,,,0.00,Wunderground v.1.15,2013-01-24 09:05:00,
2013-01-24 04:07:00,42.5,36.4,30.18,SW,224,0.0,3.0,79,0.00,,,0.00,Wunderground v.1.15,2013-01-24 09:07:00,
2013-01-24 04:08:00,42.5,36.4,30.18,SW,224,1.0,3.0,79,0.00,,,0.00,Wunderground v.1.15,2013-01-24 09:08:00,
2013-01-24 04:10:00,42.5,36.4,30.18,SW,224,1.0,1.0,79,0.00,,,0.00,Wunderground v.1.15,2013-01-24 09:10:00,
2013-01-24 04:13:00,42.5,36.4,30.18,SW,223,0.0,2.0,79,0.00,,,0.00,Wunderground v.1.15,2013-01-24 09:13:00,
2013-01-24 04:15:00,42.6,36.2,30.18,SW,223,1.0,2.0,78,0.00,,,0.00,Wunderground v.1.15,2013-01-24 09:15:00,
2013-01-24 04:18:00,42.6,36.2,30.18,SW,223,0.0,2.0,78,0.00,,,0.00,Wunderground v.1.15,2013-01-24 09:18:00,
2013-01-24 04:20:00,42.6,36.2,30.18,SW,224,0.0,1.0,78,0.00,,,0.00,Wunderground v.1.15,2013-01-24 09:20:00,
2013-01-24 04:23:00,42.5,36.1,30.18,SW,223,0.0,1.0,78,0.00,,,0.00,Wunderground v.1.15,2013-01-24 09:23:00,
2013-01-24 04:24:00,42.5,36.1,30.18,SW,223,0.0,1.0,78,0.00,,,0.00,Wunderground v.1.15,2013-01-24 09:24:00,
2013-01-24 04:26:00,42.5,36.1,30.18,SW,224,0.0,1.0,78,0.00,,,0.00,Wunderground v.1.15,2013-01-24 09:26:00,
2013-01-24 04:28:00,42.4,36.0,30.18,SW,224,3.0,3.0,78,0.00,,,0.00,Wunderground v.1.15,2013-01-24 09:28:00,
2013-01-24 04:29:00,42.4,36.0,30.18,SW,224,2.0,3.0,78,0.00,,,0.00,Wunderground v.1.15,2013-01-24 09:29:00,
2013-01-24 04:31:00,42.4,36.0,30.18,SW,224,0.0,0.0,78,0.00,,,0.00,Wunderground v.1.15,2013-01-24 09:31:00,
2013-01-24 04:34:00,42.4,36.0,30.18,SW,224,0.0,1.0,78,0.00,,,0.00,Wunderground v.1.15,2013-01-24 09:34:00,
2013-01-24 04:35:00,42.4,36.0,30.18,SW,224,0.0,1.0,78,0.00,,,0.00,Wunderground v.1.15,2013-01-24 09:35:00,
2013-01-24 04:36:00,42.4,36.0,30.18,SW,223,0.0,1.0,78,0.00,,,0.00,Wunderground v.1.15,2013-01-24 09:36:00,
2013-01-24 04:39:00,42.3,35.9,30.18,SW,224,1.0,2.0,78,0.00,,,0.00,Wunderground v.1.15,2013-01-24 09:39:00,
2013-01-24 04:40:00,42.3,35.9,30.18,SW,224,0.0,0.0,78,0.00,,,0.00,Wunderground v.1.15,2013-01-24 09:40:00,
2013-01-24 04:41:00,42.3,35.9,30.18,SW,223,0.0,0.0,78,0.00,,,0.00,Wunderground v.1.15,2013-01-24 09:41:00,
2013-01-24 04:44:00,42.2,35.8,30.19,SW,223,0.0,0.0,78,0.00,,,0.00,Wunderground v.1.15,2013-01-24 09:44:00,
2013-01-24 04:45:00,42.2,35.8,30.19,SW,224,0.0,0.0,78,0.00,,,0.00,Wunderground v.1.15,2013-01-24 09:45:00,
2013-01-24 04:46:00,42.2,35.8,30.19,SW,223,0.0,0.0,78,0.00,,,0.00,Wunderground v.1.15,2013-01-24 09:46:00,
2013-01-24 04:49:00,42.2,35.8,30.19,SW,224,0.0,0.0,78,0.00,,,0.00,Wunderground v.1.15,2013-01-24 09:49:00,
2013-01-24 04:50:00,42.2,35.8,30.19,SW,224,0.0,0.0,78,0.00,,,0.00,Wunderground v.1.15,2013-01-24 09:50:00,
2013-01-24 04:51:00,42.2,35.8,30.19,SW,224,0.0,0.0,78,0.00,,,0.00,Wunderground v.1.15,2013-01-24 09:51:00,
2013-01-24 04:52:00,42.2,35.8,30.19,SW,224,0.0,0.0,78,0.00,,,0.00,Wunderground v.1.15,2013-01-24 09:52:00,
2013-01-24 04:54:00,42.2,35.8,30.19,SW,224,0.0,0.0,78,0.00,,,0.00,Wunderground v.1.15,2013-01-24 09:54:00,
2013-01-24 04:55:00,42.2,35.8,30.19,SW,224,0.0,0.0,78,0.00,,,0.00,Wunderground v.1.15,2013-01-24 09:55:00,
2013-01-24 04:57:00,42.2,35.8,30.19,SW,223,0.0,0.0,78,0.00,,,0.00,Wunderground v.1.15,2013-01-24 09:57:00,
2013-01-24 04:59:00,42.2,35.8,30.19,SW,223,0.0,1.0,78,0.00,,,0.00,Wunderground v.1.15,2013-01-24 09:59:00,
2013-01-24 05:00:00,42.2,35.5,30.19,SW,224,0.0,1.0,77,0.00,,,0.00,Wunderground v.1.15,2013-01-24 10:00:00,
2013-01-24 05:02:00,42.3,35.6,30.19,SW,224,0.0,1.0,77,0.00,,,0.00,Wunderground v.1.15,2013-01-24 10:02:00,
2013-01-24 05:04:00,42.3,35.6,30.19,SW,223,0.0,1.0,77,0.00,,,0.00,Wunderground v.1.15,2013-01-24 10:04:00,
2013-01-24 05:05:00,42.3,35.6,30.19,SW,224,0.0,1.0,77,0.00,,,0.00,Wunderground v.1.15,2013-01-24 10:05:00,
2013-01-24 05:08:00,42.4,35.7,30.19,SW,223,1.0,1.0,77,0.00,,,0.00,Wunderground v.1.15,2013-01-24 10:08:00,
2013-01-24 05:09:00,42.4,35.7,30.19,SW,224,0.0,1.0,77,0.00,,,0.00,Wunderground v.1.15,2013-01-24 10:09:00,
2013-01-24 05:11:00,42.3,35.6,30.19,SW,224,0.0,0.0,77,0.00,,,0.00,Wunderground v.1.15,2013-01-24 10:11:00,
2013-01-24 05:13:00,42.2,35.5,30.19,SW,223,0.0,2.0,77,0.00,,,0.00,Wunderground v.1.15,2013-01-24 10:13:00,
2013-01-24 05:14:00,42.1,35.4,30.19,SW,224,2.0,3.0,77,0.00,,,0.00,Wunderground v.1.15,2013-01-24 10:14:00,
2013-01-24 05:16:00,41.9,35.2,30.19,SW,224,0.0,3.0,77,0.00,,,0.00,Wunderground v.1.15,2013-01-24 10:16:00,
2013-01-24 05:18:00,41.7,35.0,30.19,SW,224,2.0,3.0,77,0.00,,,0.00,Wunderground v.1.15,2013-01-24 10:18:00,
2013-01-24 05:19:00,41.6,34.9,30.19,SW,224,0.0,3.0,77,0.00,,,0.00,Wunderground v.1.15,2013-01-24 10:19:00,
2013-01-24 05:21:00,41.5,35.2,30.19,SW,223,0.0,1.0,78,0.00,,,0.00,Wunderground v.1.15,2013-01-24 10:21:00,
2013-01-24 05:23:00,41.3,35.0,30.19,SW,224,2.0,2.0,78,0.00,,,0.00,Wunderground v.1.15,2013-01-24 10:23:00,
2013-01-24 05:24:00,41.3,35.0,30.19,SW,223,1.0,2.0,78,0.00,,,0.00,Wunderground v.1.15,2013-01-24 10:24:00,
2013-01-24 05:26:00,41.1,34.8,30.19,SW,224,2.0,2.0,78,0.00,,,0.00,Wunderground v.1.15,2013-01-24 10:26:00,
2013-01-24 05:29:00,41.0,34.7,30.19,SW,224,1.0,3.0,78,0.00,,,0.00,Wunderground v.1.15,2013-01-24 10:29:00,
2013-01-24 05:30:00,40.9,34.6,30.19,SW,223,3.0,3.0,78,0.00,,,0.00,Wunderground v.1.15,2013-01-24 10:30:00,
2013-01-24 05:31:00,40.8,34.5,30.19,SW,223,1.0,3.0,78,0.00,,,0.00,Wunderground v.1.15,2013-01-24 10:31:00,
2013-01-24 05:34:00,40.6,34.3,30.19,SW,224,0.0,3.0,78,0.00,,,0.00,Wunderground v.1.15,2013-01-24 10:34:00,
2013-01-24 05:35:00,40.6,34.3,30.19,SW,224,0.0,3.0,78,0.00,,,0.00,Wunderground v.1.15,2013-01-24 10:35:00,
2013-01-24 05:36:00,40.5,34.2,30.19,SW,224,1.0,3.0,78,0.00,,,0.00,Wunderground v.1.15,2013-01-24 10:36:00,
2013-01-24 05:39:00,40.4,34.1,30.19,SW,224,1.0,3.0,78,0.00,,,0.00,Wunderground v.1.15,2013-01-24 10:39:00,
2013-01-24 05:40:00,40.3,34.0,30.19,SW,224,2.0,3.0,78,0.00,,,0.00,Wunderground v.1.15,2013-01-24 10:40:00,
2013-01-24 05:41:00,40.3,34.0,30.19,SW,224,2.0,3.0,78,0.00,,,0.00,Wunderground v.1.15,2013-01-24 10:41:00,
2013-01-24 05:42:00,40.3,34.0,30.20,SW,223,0.0,3.0,78,0.00,,,0.00,Wunderground v.1.15,2013-01-24 10:42:00,
2013-01-24 05:45:00,40.2,33.9,30.20,SW,224,2.0,3.0,78,0.00,,,0.00,Wunderground v.1.15,2013-01-24 10:45:00,
2013-01-24 05:46:00,40.2,33.6,30.20,SW,223,0.0,3.0,77,0.00,,,0.00,Wunderground v.1.15,2013-01-24 10:46:00,
2013-01-24 05:48:00,40.2,33.6,30.20,SW,223,0.0,3.0,77,0.00,,,0.00,Wunderground v.1.15,2013-01-24 10:48:00,
2013-01-24 05:50:00,40.1,33.5,30.20,SW,224,0.0,1.0,77,0.00,,,0.00,Wunderground v.1.15,2013-01-24 10:50:00,
2013-01-24 05:51:00,40.1,33.5,30.20,SW,223,0.0,1.0,77,0.00,,,0.00,Wunderground v.1.15,2013-01-24 10:51:00,
2013-01-24 05:53:00,40.0,33.4,30.20,SW,223,0.0,1.0,77,0.00,,,0.00,Wunderground v.1.15,2013-01-24 10:53:00,
2013-01-24 05:55:00,39.8,33.5,30.20,SW,224,0.0,1.0,78,0.00,,,0.00,Wunderground v.1.15,2013-01-24 10:55:00,
2013-01-24 05:56:00,39.8,33.5,30.20,SW,224,1.0,1.0,78,0.00,,,0.00,Wunderground v.1.15,2013-01-24 10:56:00,
2013-01-24 05:59:00,39.7,33.4,30.21,SW,224,0.0,1.0,78,0.00,,,0.00,Wunderground v.1.15,2013-01-24 10:59:00,
2013-01-24 06:00:00,39.6,33.3,30.21,SW,223,0.0,1.0,78,0.00,,,0.00,Wunderground v.1.15,2013-01-24 11:00:00,
2013-01-24 06:01:00,39.5,33.2,30.21,SW,224,0.0,1.0,78,0.00,,,0.00,Wunderground v.1.15,2013-01-24 11:01:00,
2013-01-24 06:04:00,39.4,33.1,30.22,SW,224,0.0,1.0,78,0.00,,,0.00,Wunderground v.1.15,2013-01-24 11:04:00,
2013-01-24 06:06:00,39.3,33.0,30.22,SW,223,0.0,1.0,78,0.00,,,0.00,Wunderground v.1.15,2013-01-24 11:06:00,
2013-01-24 06:08:00,39.2,32.9,30.22,SW,223,0.0,1.0,78,0.00,,,0.00,Wunderground v.1.15,2013-01-24 11:08:00,
2013-01-24 06:09:00,39.1,32.8,30.22,SW,223,0.0,1.0,78,0.00,,,0.00,Wunderground v.1.15,2013-01-24 11:09:00,
2013-01-24 06:11:00,38.9,32.6,30.22,SW,225,6.0,6.0,78,0.00,,,0.00,Wunderground v.1.15,2013-01-24 11:11:00,
2013-01-24 06:12:00,38.9,32.3,30.22,SW,232,4.0,7.0,77,0.00,,,0.00,Wunderground v.1.15,2013-01-24 11:12:00,
2013-01-24 06:13:00,38.9,32.3,30.22,SW,232,1.0,7.0,77,0.00,,,0.00,Wunderground v.1.15,2013-01-24 11:13:00,
2013-01-24 06:14:00,38.8,32.2,30.22,SW,232,0.0,7.0,77,0.00,,,0.00,Wunderground v.1.15,2013-01-24 11:14:00,
2013-01-24 06:17:00,38.7,31.5,30.22,SW,232,0.0,7.0,75,0.00,,,0.00,Wunderground v.1.15,2013-01-24 11:17:00,
2013-01-24 06:18:00,38.7,31.5,30.23,SW,232,0.0,7.0,75,0.00,,,0.00,Wunderground v.1.15,2013-01-24 11:18:00,
2013-01-24 06:20:00,38.6,31.0,30.23,SW,232,2.0,2.0,74,0.00,,,0.00,Wunderground v.1.15,2013-01-24 11:20:00,
2013-01-24 06:22:00,38.6,31.0,30.23,SW,232,1.0,2.0,74,0.00,,,0.00,Wunderground v.1.15,2013-01-24 11:22:00,
2013-01-24 06:23:00,38.6,30.7,30.23,SW,232,1.0,2.0,73,0.00,,,0.00,Wunderground v.1.15,2013-01-24 11:23:00,
2013-01-24 06:25:00,38.5,29.9,30.23,SW,232,1.0,2.0,71,0.00,,,0.00,Wunderground v.1.15,2013-01-24 11:25:00,
2013-01-24 06:27:00,38.5,29.9,30.23,SW,232,0.0,3.0,71,0.00,,,0.00,Wunderground v.1.15,2013-01-24 11:27:00,
2013-01-24 06:28:00,38.4,29.8,30.23,SW,232,1.0,3.0,71,0.00,,,0.00,Wunderground v.1.15,2013-01-24 11:28:00,
2013-01-24 06:30:00,38.4,29.5,30.23,SW,232,1.0,2.0,70,0.00,,,0.00,Wunderground v.1.15,2013-01-24 11:30:00,
2013-01-24 06:32:00,38.3,29.4,30.23,SW,232,5.0,6.0,70,0.00,,,0.00,Wunderground v.1.15,2013-01-24 11:32:00,
2013-01-24 06:33:00,38.3,29.4,30.23,SW,232,2.0,6.0,70,0.00,,,0.00,Wunderground v.1.15,2013-01-24 11:33:00,
2013-01-24 06:35:00,38.2,29.3,30.23,SW,232,0.0,6.0,70,0.00,,,0.00,Wunderground v.1.15,2013-01-24 11:35:00,
2013-01-24 06:38:00,38.0,29.1,30.23,SW,232,0.0,6.0,70,0.00,,,0.00,Wunderground v.1.15,2013-01-24 11:38:00,
2013-01-24 06:39:00,38.0,29.1,30.23,SW,232,0.0,6.0,70,0.00,,,0.00,Wunderground v.1.15,2013-01-24 11:39:00,
2013-01-24 06:40:00,37.9,29.0,30.23,SW,232,2.0,3.0,70,0.00,,,0.00,Wunderground v.1.15,2013-01-24 11:40:00,
2013-01-24 06:43:00,37.8,28.9,30.23,SW,232,0.0,3.0,70,0.00,,,0.00,Wunderground v.1.15,2013-01-24 11:43:00,
2013-01-24 06:44:00,37.8,28.9,30.23,SW,232,1.0,3.0,70,0.00,,,0.00,Wunderground v.1.15,2013-01-24 11:44:00,
2013-01-24 06:46:00,37.7,28.8,30.23,SW,232,0.0,3.0,70,0.00,,,0.00,Wunderground v.1.15,2013-01-24 11:46:00,
2013-01-24 06:48:00,37.6,28.7,30.23,SW,232,1.0,3.0,70,0.00,,,0.00,Wunderground v.1.15,2013-01-24 11:48:00,
2013-01-24 06:50:00,37.6,28.7,30.23,SW,232,2.0,2.0,70,0.00,,,0.00,Wunderground v.1.15,2013-01-24 11:50:00,
2013-01-24 06:51:00,37.5,28.2,30.23,SW,232,0.0,2.0,69,0.00,,,0.00,Wunderground v.1.15,2013-01-24 11:51:00,
2013-01-24 06:53:00,37.4,28.2,30.24,SW,232,0.0,3.0,69,0.00,,,0.00,Wunderground v.1.15,2013-01-24 11:53:00,
2013-01-24 06:54:00,37.4,28.2,30.24,SW,232,0.0,3.0,69,0.00,,,0.00,Wunderground v.1.15,2013-01-24 11:54:00,
2013-01-24 06:55:00,37.4,28.2,30.24,SW,232,1.0,3.0,69,0.00,,,0.00,Wunderground v.1.15,2013-01-24 11:55:00,
2013-01-24 06:56:00,37.3,28.1,30.24,SW,232,2.0,3.0,69,0.00,,,0.00,Wunderground v.1.15,2013-01-24 11:56:00,
2013-01-24 06:58:00,37.3,28.1,30.24,SW,232,0.0,3.0,69,0.00,,,0.00,Wunderground v.1.15,2013-01-24 11:58:00,
2013-01-24 06:59:00,37.3,28.1,30.24,SW,232,0.0,3.0,69,0.00,,,0.00,Wunderground v.1.15,2013-01-24 11:59:00,
2013-01-24 07:00:00,37.2,28.0,30.24,SW,232,4.0,4.0,69,0.00,,,0.00,Wunderground v.1.15,2013-01-24 12:00:00,
2013-01-24 07:01:00,37.1,27.9,30.24,SW,232,0.0,4.0,69,0.00,,,0.00,Wunderground v.1.15,2013-01-24 12:01:00,
2013-01-24 07:04:00,37.0,27.4,30.23,SW,232,3.0,4.0,68,0.00,,,0.00,Wunderground v.1.15,2013-01-24 12:04:00,
2013-01-24 07:05:00,37.0,27.4,30.23,SW,232,1.0,4.0,68,0.00,,,0.00,Wunderground v.1.15,2013-01-24 12:05:00,
2013-01-24 07:07:00,36.9,27.7,30.23,SW,232,0.0,4.0,69,0.00,,,0.00,Wunderground v.1.15,2013-01-24 12:07:00,
2013-01-24 07:09:00,36.9,27.3,30.23,SW,232,1.0,4.0,68,0.00,,,0.00,Wunderground v.1.15,2013-01-24 12:09:00,
2013-01-24 07:10:00,36.9,27.3,30.24,SW,232,0.0,2.0,68,0.00,,,0.00,Wunderground v.1.15,2013-01-24 12:10:00,
2013-01-24 07:13:00,36.7,27.1,30.24,SW,232,1.0,3.0,68,0.00,,,0.00,Wunderground v.1.15,2013-01-24 12:13:00,
2013-01-24 07:14:00,36.6,27.4,30.24,SW,232,1.0,3.0,69,0.00,,,0.00,Wunderground v.1.15,2013-01-24 12:14:00,
2013-01-24 07:15:00,36.6,27.0,30.24,SW,232,1.0,3.0,68,0.00,,,0.00,Wunderground v.1.15,2013-01-24 12:15:00,
2013-01-24 07:19:00,36.5,26.9,30.24,SW,232,1.0,4.0,68,0.00,,,0.00,Wunderground v.1.15,2013-01-24 12:19:00,
2013-01-24 07:20:00,36.5,26.9,30.24,SW,232,2.0,2.0,68,0.00,,,0.00,Wunderground v.1.15,2013-01-24 12:20:00,
2013-01-24 07:21:00,36.5,27.3,30.24,SW,232,0.0,2.0,69,0.00,,,0.00,Wunderground v.1.15,2013-01-24 12:21:00,
2013-01-24 07:24:00,36.3,27.1,30.24,SW,232,1.0,2.0,69,0.00,,,0.00,Wunderground v.1.15,2013-01-24 12:24:00,
2013-01-24 07:25:00,36.3,27.1,30.24,SW,232,0.0,2.0,69,0.00,,,0.00,Wunderground v.1.15,2013-01-24 12:25:00,
2013-01-24 07:26:00,36.2,27.0,30.24,SW,232,0.0,2.0,69,0.00,,,0.00,Wunderground v.1.15,2013-01-24 12:26:00,
2013-01-24 07:29:00,36.1,26.9,30.24,SW,232,0.0,2.0,69,0.00,,,0.00,Wunderground v.1.15,2013-01-24 12:29:00,
2013-01-24 07:30:00,36.1,26.9,30.24,SW,232,0.0,0.0,69,0.00,,,0.00,Wunderground v.1.15,2013-01-24 12:30:00,
2013-01-24 07:31:00,36.0,26.8,30.24,SW,232,0.0,0.0,69,0.00,,,0.00,Wunderground v.1.15,2013-01-24 12:31:00,
2013-01-24 07:35:00,35.8,26.6,30.24,SW,232,0.0,1.0,69,0.00,,,0.00,Wunderground v.1.15,2013-01-24 12:35:00,
2013-01-24 07:36:00,35.7,26.5,30.25,SW,232,0.0,1.0,69,0.00,,,0.00,Wunderground v.1.15,2013-01-24 12:36:00,
2013-01-24 07:40:00,35.5,26.7,30.26,SW,232,0.0,1.0,70,0.00,,,0.00,Wunderground v.1.15,2013-01-24 12:40:00,
2013-01-24 07:41:00,35.5,26.7,30.26,SW,232,1.0,1.0,70,0.00,,,0.00,Wunderground v.1.15,2013-01-24 12:41:00,
2013-01-24 07:45:00,35.3,26.8,30.27,SW,232,0.0,3.0,71,0.00,,,0.00,Wunderground v.1.15,2013-01-24 12:45:00,
2013-01-24 07:46:00,35.3,26.8,30.27,SW,232,0.0,3.0,71,0.00,,,0.00,Wunderground v.1.15,2013-01-24 12:46:00,
2013-01-24 07:51:00,35.0,26.9,30.28,SW,229,2.0,6.0,72,0.00,,,0.00,Wunderground v.1.15,2013-01-24 12:51:00,
2013-01-24 07:56:00,34.7,26.3,30.28,SW,229,2.0,6.0,71,0.00,,,0.00,Wunderground v.1.15,2013-01-24 12:56:00,
2013-01-24 08:01:00,34.4,24.9,30.27,SW,229,0.0,3.0,68,0.00,,,0.00,Wunderground v.1.15,2013-01-24 13:01:00,
2013-01-24 08:02:00,34.4,24.9,30.27,SW,229,2.0,3.0,68,0.00,,,0.00,Wunderground v.1.15,2013-01-24 13:02:00,
2013-01-24 08:06:00,34.4,24.6,30.28,SW,229,0.0,3.0,67,0.00,,,0.00,Wunderground v.1.15,2013-01-24 13:06:00,
2013-01-24 08:07:00,34.4,24.6,30.28,SW,229,1.0,3.0,67,0.00,,,0.00,Wunderground v.1.15,2013-01-24 13:07:00,
2013-01-24 08:11:00,34.4,24.2,30.28,SW,232,2.0,5.0,66,0.00,,,0.00,Wunderground v.1.15,2013-01-24 13:11:00,
2013-01-24 08:12:00,34.4,24.2,30.28,SW,232,1.0,5.0,66,0.00,,,0.00,Wunderground v.1.15,2013-01-24 13:12:00,
2013-01-24 08:16:00,34.4,24.2,30.28,SW,232,0.0,5.0,66,0.00,,,0.00,Wunderground v.1.15,2013-01-24 13:16:00,
2013-01-24 08:17:00,34.4,24.2,30.28,SW,232,0.0,5.0,66,0.00,,,0.00,Wunderground v.1.15,2013-01-24 13:17:00,
2013-01-24 08:18:00,34.4,24.2,30.29,SW,232,0.0,5.0,66,0.00,,,0.00,Wunderground v.1.15,2013-01-24 13:18:00,
2013-01-24 08:22:00,34.4,24.2,30.29,SW,232,0.0,4.0,66,0.00,,,0.00,Wunderground v.1.15,2013-01-24 13:22:00,
2013-01-24 08:23:00,34.4,24.2,30.29,SW,232,0.0,4.0,66,0.00,,,0.00,Wunderground v.1.15,2013-01-24 13:23:00,
2013-01-24 08:24:00,34.4,24.2,30.29,SW,232,0.0,4.0,66,0.00,,,0.00,Wunderground v.1.15,2013-01-24 13:24:00,
2013-01-24 08:27:00,34.3,24.5,30.29,SW,232,0.0,4.0,67,0.00,,,0.00,Wunderground v.1.15,2013-01-24 13:27:00,
2013-01-24 08:28:00,34.3,24.5,30.29,SW,232,1.0,4.0,67,0.00,,,0.00,Wunderground v.1.15,2013-01-24 13:28:00,
2013-01-24 08:29:00,34.3,24.1,30.29,SW,232,3.0,4.0,66,0.00,,,0.00,Wunderground v.1.15,2013-01-24 13:29:00,
2013-01-24 08:33:00,34.4,23.5,30.30,SW,236,0.0,7.0,64,0.00,,,0.00,Wunderground v.1.15,2013-01-24 13:33:00,
2013-01-24 08:34:00,34.4,23.5,30.30,SW,236,0.0,7.0,64,0.00,,,0.00,Wunderground v.1.15,2013-01-24 13:34:00,
2013-01-24 08:38:00,34.7,23.4,30.29,SW,236,1.0,7.0,63,0.00,,,0.00,Wunderground v.1.15,2013-01-24 13:38:00,
2013-01-24 08:39:00,34.8,23.5,30.30,SW,234,2.0,7.0,63,0.00,,,0.00,Wunderground v.1.15,2013-01-24 13:39:00,
2013-01-24 08:43:00,35.1,21.8,30.30,WSW,250,2.0,12.0,58,0.00,,,0.00,Wunderground v.1.15,2013-01-24 13:43:00,
2013-01-24 08:44:00,35.2,21.9,30.30,WSW,252,1.0,12.0,58,0.00,,,0.00,Wunderground v.1.15,2013-01-24 13:44:00,
2013-01-24 08:48:00,35.4,22.5,30.30,WSW,252,2.0,12.0,59,0.00,,,0.00,Wunderground v.1.15,2013-01-24 13:48:00,
2013-01-24 08:49:00,35.4,22.5,30.30,WSW,252,3.0,12.0,59,0.00,,,0.00,Wunderground v.1.15,2013-01-24 13:49:00,
2013-01-24 08:50:00,35.5,22.6,30.30,WSW,252,3.0,3.0,59,0.00,,,0.00,Wunderground v.1.15,2013-01-24 13:50:00,
2013-01-24 08:54:00,35.6,22.7,30.31,WSW,252,2.0,6.0,59,0.00,,,0.00,Wunderground v.1.15,2013-01-24 13:54:00,
2013-01-24 08:56:00,35.7,22.8,30.30,WSW,252,1.0,6.0,59,0.00,,,0.00,Wunderground v.1.15,2013-01-24 13:56:00,
2013-01-24 08:59:00,35.8,22.0,30.31,WSW,252,0.0,6.0,57,0.00,,,0.00,Wunderground v.1.15,2013-01-24 13:59:00,
2013-01-24 09:00:00,35.9,22.1,30.31,WSW,252,0.0,1.0,57,0.00,,,0.00,Wunderground v.1.15,2013-01-24 14:00:00,
2013-01-24 09:01:00,35.9,22.5,30.31,WSW,252,0.0,1.0,58,0.00,,,0.00,Wunderground v.1.15,2013-01-24 14:01:00,
2013-01-24 09:04:00,36.1,22.3,30.31,WSW,252,1.0,3.0,57,0.00,,,0.00,Wunderground v.1.15,2013-01-24 14:04:00,
2013-01-24 09:05:00,36.2,22.4,30.31,WSW,252,2.0,3.0,57,0.00,,,0.00,Wunderground v.1.15,2013-01-24 14:05:00,
2013-01-24 09:06:00,36.2,22.0,30.31,WSW,252,1.0,4.0,56,0.00,,,0.00,Wunderground v.1.15,2013-01-24 14:06:00,
2013-01-24 09:07:00,36.3,22.1,30.31,WSW,252,1.0,4.0,56,0.00,,,0.00,Wunderground v.1.15,2013-01-24 14:07:00,
2013-01-24 09:09:00,36.4,23.0,30.32,WSW,252,0.0,4.0,58,0.00,,,0.00,Wunderground v.1.15,2013-01-24 14:09:00,
2013-01-24 09:10:00,36.5,23.1,30.32,WSW,252,0.0,1.0,58,0.00,,,0.00,Wunderground v.1.15,2013-01-24 14:10:00,
2013-01-24 09:11:00,36.5,22.7,30.32,WSW,252,2.0,8.0,57,0.00,,,0.00,Wunderground v.1.15,2013-01-24 14:11:00,
2013-01-24 09:12:00,36.6,21.9,30.32,WSW,252,4.0,8.0,55,0.00,,,0.00,Wunderground v.1.15,2013-01-24 14:12:00,
2013-01-24 09:14:00,36.5,22.3,30.31,WSW,252,4.0,8.0,56,0.00,,,0.00,Wunderground v.1.15,2013-01-24 14:14:00,
2013-01-24 09:15:00,36.5,22.3,30.31,WSW,252,4.0,8.0,56,0.00,,,0.00,Wunderground v.1.15,2013-01-24 14:15:00,
2013-01-24 09:16:00,36.5,22.7,30.31,WSW,252,2.0,8.0,57,0.00,,,0.00,Wunderground v.1.15,2013-01-24 14:16:00,
2013-01-24 09:17:00,36.5,22.3,30.31,WSW,252,0.0,8.0,56,0.00,,,0.00,Wunderground v.1.15,2013-01-24 14:17:00,
2013-01-24 09:20:00,36.6,22.4,30.31,WSW,252,0.0,2.0,56,0.00,,,0.00,Wunderground v.1.15,2013-01-24 14:20:00,
2013-01-24 09:21:00,36.7,22.5,30.32,WSW,252,0.0,2.0,56,0.00,,,0.00,Wunderground v.1.15,2013-01-24 14:21:00,
2013-01-24 09:23:00,36.8,23.0,30.32,WSW,252,1.0,3.0,57,0.00,,,0.00,Wunderground v.1.15,2013-01-24 14:23:00,
2013-01-24 09:25:00,37.0,22.7,30.31,WSW,252,4.0,5.0,56,0.00,,,0.00,Wunderground v.1.15,2013-01-24 14:25:00,
2013-01-24 09:27:00,37.1,22.4,30.32,WSW,252,3.0,6.0,55,0.00,,,0.00,Wunderground v.1.15,2013-01-24 14:27:00,
2013-01-24 09:28:00,37.1,22.0,30.31,WSW,252,3.0,6.0,54,0.00,,,0.00,Wunderground v.1.15,2013-01-24 14:28:00,
2013-01-24 09:30:00,37.1,22.4,30.31,WSW,252,3.0,5.0,55,0.00,,,0.00,Wunderground v.1.15,2013-01-24 14:30:00,
2013-01-24 09:32:00,37.1,22.0,30.31,West,263,7.0,7.0,54,0.00,,,0.00,Wunderground v.1.15,2013-01-24 14:32:00,
2013-01-24 09:33:00,37.1,22.0,30.31,West,263,1.0,7.0,54,0.00,,,0.00,Wunderground v.1.15,2013-01-24 14:33:00,
2013-01-24 09:36:00,37.2,22.5,30.31,West,263,1.0,7.0,55,0.00,,,0.00,Wunderground v.1.15,2013-01-24 14:36:00,
2013-01-24 09:38:00,37.3,22.6,30.31,West,263,0.0,7.0,55,0.00,,,0.00,Wunderground v.1.15,2013-01-24 14:38:00,
2013-01-24 09:41:00,37.5,23.2,30.31,West,263,4.0,6.0,56,0.00,,,0.00,Wunderground v.1.15,2013-01-24 14:41:00,
2013-01-24 09:43:00,37.5,22.3,30.32,West,263,4.0,6.0,54,0.00,,,0.00,Wunderground v.1.15,2013-01-24 14:43:00,
2013-01-24 09:46:00,37.6,22.9,30.32,West,263,2.0,6.0,55,0.00,,,0.00,Wunderground v.1.15,2013-01-24 14:46:00,
2013-01-24 09:48:00,37.6,23.3,30.33,West,263,2.0,6.0,56,0.00,,,0.00,Wunderground v.1.15,2013-01-24 14:48:00,
2013-01-24 09:51:00,37.8,22.6,30.32,West,263,4.0,4.0,54,0.00,,,0.00,Wunderground v.1.15,2013-01-24 14:51:00,
2013-01-24 09:52:00,37.8,22.6,30.32,West,263,3.0,4.0,54,0.00,,,0.00,Wunderground v.1.15,2013-01-24 14:52:00,
2013-01-24 09:53:00,37.8,23.1,30.32,West,263,1.0,5.0,55,0.00,,,0.00,Wunderground v.1.15,2013-01-24 14:53:00,
2013-01-24 09:57:00,37.9,22.7,30.32,West,263,1.0,5.0,54,0.00,,,0.00,Wunderground v.1.15,2013-01-24 14:57:00,
2013-01-24 09:58:00,37.9,23.2,30.31,West,263,2.0,5.0,55,0.00,,,0.00,Wunderground v.1.15,2013-01-24 14:58:00,
2013-01-24 09:59:00,37.9,22.7,30.31,West,273,7.0,9.0,54,0.00,,,0.00,Wunderground v.1.15,2013-01-24 14:59:00,
2013-01-24 10:02:00,38.0,23.7,30.31,West,273,2.0,3.0,56,0.00,,,0.00,Wunderground v.1.15,2013-01-24 15:02:00,
2013-01-24 10:03:00,38.1,23.3,30.31,West,273,2.0,3.0,55,0.00,,,0.00,Wunderground v.1.15,2013-01-24 15:03:00,
2013-01-24 10:04:00,38.1,23.3,30.31,West,273,4.0,4.0,55,0.00,,,0.00,Wunderground v.1.15,2013-01-24 15:04:00,
2013-01-24 10:07:00,38.1,24.2,30.31,West,273,1.0,4.0,57,0.00,,,0.00,Wunderground v.1.15,2013-01-24 15:07:00,
2013-01-24 10:08:00,38.3,23.5,30.31,West,273,2.0,4.0,55,0.00,,,0.00,Wunderground v.1.15,2013-01-24 15:08:00,
2013-01-24 10:09:00,38.3,23.5,30.31,West,273,0.0,4.0,55,0.00,,,0.00,Wunderground v.1.15,2013-01-24 15:09:00,
2013-01-24 10:12:00,38.6,23.4,30.31,West,273,1.0,4.0,54,0.00,,,0.00,Wunderground v.1.15,2013-01-24 15:12:00,
2013-01-24 10:13:00,38.6,23.8,30.32,West,273,1.0,4.0,55,0.00,,,0.00,Wunderground v.1.15,2013-01-24 15:13:00,
2013-01-24 10:14:00,38.6,23.8,30.32,West,273,3.0,4.0,55,0.00,,,0.00,Wunderground v.1.15,2013-01-24 15:14:00,
2013-01-24 10:17:00,38.8,23.6,30.32,West,273,2.0,5.0,54,0.00,,,0.00,Wunderground v.1.15,2013-01-24 15:17:00,
2013-01-24 10:18:00,38.8,23.6,30.32,West,273,1.0,5.0,54,0.00,,,0.00,Wunderground v.1.15,2013-01-24 15:18:00,
2013-01-24 10:19:00,38.8,24.0,30.32,West,279,9.0,9.0,55,0.00,,,0.00,Wunderground v.1.15,2013-01-24 15:19:00,
2013-01-24 10:22:00,38.8,24.0,30.32,WNW,284,0.0,4.0,55,0.00,,,0.00,Wunderground v.1.15,2013-01-24 15:22:00,
2013-01-24 10:23:00,38.8,24.4,30.32,WNW,284,1.0,4.0,56,0.00,,,0.00,Wunderground v.1.15,2013-01-24 15:23:00,
2013-01-24 10:24:00,38.8,24.0,30.32,WNW,294,2.0,6.0,55,0.00,,,0.00,Wunderground v.1.15,2013-01-24 15:24:00,
2013-01-24 10:27:00,38.6,23.4,30.32,NNE,33,4.0,10.0,54,0.00,,,0.00,Wunderground v.1.15,2013-01-24 15:27:00,
2013-01-24 10:28:00,38.6,23.4,30.32,NNE,30,6.0,10.0,54,0.00,,,0.00,Wunderground v.1.15,2013-01-24 15:28:00,
2013-01-24 10:29:00,38.6,23.4,30.32,NNE,31,3.0,10.0,54,0.00,,,0.00,Wunderground v.1.15,2013-01-24 15:29:00,
2013-01-24 10:32:00,38.3,24.0,30.32,NW,315,2.0,7.0,56,0.00,,,0.00,Wunderground v.1.15,2013-01-24 15:32:00,
2013-01-24 10:33:00,38.3,24.0,30.32,NNW,332,1.0,7.0,56,0.00,,,0.00,Wunderground v.1.15,2013-01-24 15:33:00,
2013-01-24 10:34:00,38.4,24.1,30.32,NNW,332,0.0,7.0,56,0.00,,,0.00,Wunderground v.1.15,2013-01-24 15:34:00,
2013-01-24 10:35:00,38.5,24.6,30.33,NNW,332,0.0,7.0,57,0.00,,,0.00,Wunderground v.1.15,2013-01-24 15:35:00,
2013-01-24 10:38:00,38.8,24.4,30.33,NNE,22,2.0,7.0,56,0.00,,,0.00,Wunderground v.1.15,2013-01-24 15:38:00,
2013-01-24 10:40:00,39.0,23.7,30.33,NNW,337,11.0,11.0,54,0.00,,,0.00,Wunderground v.1.15,2013-01-24 15:40:00,
2013-01-24 10:44:00,39.3,24.0,30.33,NNE,19,3.0,11.0,54,0.00,,,0.00,Wunderground v.1.15,2013-01-24 15:44:00,
2013-01-24 10:45:00,39.3,24.0,30.33,NNE,18,0.0,11.0,54,0.00,,,0.00,Wunderground v.1.15,2013-01-24 15:45:00,
2013-01-24 10:46:00,39.4,24.6,30.32,NNE,18,1.0,11.0,55,0.00,,,0.00,Wunderground v.1.15,2013-01-24 15:46:00,
2013-01-24 10:49:00,39.7,24.4,30.33,SE,125,2.0,11.0,54,0.00,,,0.00,Wunderground v.1.15,2013-01-24 15:49:00,
2013-01-24 10:50:00,39.7,24.0,30.33,SE,124,1.0,3.0,53,0.00,,,0.00,Wunderground v.1.15,2013-01-24 15:50:00,
2013-01-24 10:51:00,40.0,25.6,30.33,SE,124,1.0,3.0,56,0.00,,,0.00,Wunderground v.1.15,2013-01-24 15:51:00,
2013-01-24 10:54:00,40.2,24.9,30.33,SE,124,2.0,5.0,54,0.00,,,0.00,Wunderground v.1.15,2013-01-24 15:54:00,
2013-01-24 10:55:00,40.4,25.1,30.33,SE,124,1.0,5.0,54,0.00,,,0.00,Wunderground v.1.15,2013-01-24 15:55:00,
2013-01-24 10:56:00,40.5,23.8,30.32,ENE,75,0.0,6.0,51,0.00,,,0.00,Wunderground v.1.15,2013-01-24 15:56:00,
2013-01-24 10:59:00,40.6,23.9,30.32,ENE,75,1.0,6.0,51,0.00,,,0.00,Wunderground v.1.15,2013-01-24 15:59:00,
2013-01-24 11:00:00,40.6,24.8,30.33,ENE,74,2.0,2.0,53,0.00,,,0.00,Wunderground v.1.15,2013-01-24 16:00:00,
2013-01-24 11:01:00,40.6,23.9,30.33,ENE,74,2.0,6.0,51,0.00,,,0.00,Wunderground v.1.15,2013-01-24 16:01:00,
2013-01-24 11:04:00,40.6,24.8,30.33,ENE,74,3.0,6.0,53,0.00,,,0.00,Wunderground v.1.15,2013-01-24 16:04:00,
2013-01-24 11:05:00,40.6,24.8,30.33,ENE,64,3.0,6.0,53,0.00,,,0.00,Wunderground v.1.15,2013-01-24 16:05:00,
2013-01-24 11:06:00,40.7,24.0,30.33,ENE,70,3.0,6.0,51,0.00,,,0.00,Wunderground v.1.15,2013-01-24 16:06:00,
2013-01-24 11:09:00,40.6,23.4,30.33,ENE,59,3.0,9.0,50,0.00,,,0.00,Wunderground v.1.15,2013-01-24 16:09:00,
2013-01-24 11:10:00,40.6,23.4,30.33,ENE,59,1.0,3.0,50,0.00,,,0.00,Wunderground v.1.15,2013-01-24 16:10:00,
2013-01-24 11:11:00,40.5,23.8,30.33,ENE,59,2.0,4.0,51,0.00,,,0.00,Wunderground v.1.15,2013-01-24 16:11:00,
2013-01-24 11:15:00,40.8,24.1,30.34,NNE,25,3.0,5.0,51,0.00,,,0.00,Wunderground v.1.15,2013-01-24 16:15:00,
2013-01-24 11:16:00,40.9,24.1,30.33,North,10,1.0,6.0,51,0.00,,,0.00,Wunderground v.1.15,2013-01-24 16:16:00,
2013-01-24 11:20:00,41.0,23.8,30.33,West,272,4.0,5.0,50,0.00,,,0.00,Wunderground v.1.15,2013-01-24 16:20:00,
2013-01-24 11:21:00,41.0,23.3,30.34,NE,44,2.0,6.0,49,0.00,,,0.00,Wunderground v.1.15,2013-01-24 16:21:00,
2013-01-24 11:22:00,41.0,23.8,30.34,NE,44,1.0,6.0,50,0.00,,,0.00,Wunderground v.1.15,2013-01-24 16:22:00,
2013-01-24 11:25:00,41.2,23.9,30.34,East,83,2.0,6.0,50,0.00,,,0.00,Wunderground v.1.15,2013-01-24 16:25:00,
2013-01-24 11:26:00,41.2,23.9,30.34,East,91,4.0,6.0,50,0.00,,,0.00,Wunderground v.1.15,2013-01-24 16:26:00,
2013-01-24 11:27:00,41.3,24.0,30.34,ENE,57,3.0,6.0,50,0.00,,,0.00,Wunderground v.1.15,2013-01-24 16:27:00,
2013-01-24 11:30:00,41.4,24.6,30.34,East,82,6.0,6.0,51,0.00,,,0.00,Wunderground v.1.15,2013-01-24 16:30:00,
2013-01-24 11:31:00,41.4,24.6,30.34,NE,46,6.0,6.0,51,0.00,,,0.00,Wunderground v.1.15,2013-01-24 16:31:00,
2013-01-24 11:32:00,41.4,24.1,30.35,ENE,58,2.0,6.0,50,0.00,,,0.00,Wunderground v.1.15,2013-01-24 16:32:00,
2013-01-24 11:36:00,41.1,22.9,30.34,NE,53,4.0,9.0,48,0.00,,,0.00,Wunderground v.1.15,2013-01-24 16:36:00,
2013-01-24 11:37:00,40.9,23.2,30.34,NNE,17,2.0,9.0,49,0.00,,,0.00,Wunderground v.1.15,2013-01-24 16:37:00,
2013-01-24 11:41:00,40.6,23.4,30.35,NE,51,3.0,10.0,50,0.00,,,0.00,Wunderground v.1.15,2013-01-24 16:41:00,
2013-01-24 11:42:00,40.5,23.3,30.35,ENE,60,9.0,10.0,50,0.00,,,0.00,Wunderground v.1.15,2013-01-24 16:42:00,
2013-01-24 11:46:00,40.2,23.5,30.34,ESE,102,2.0,10.0,51,0.00,,,0.00,Wunderground v.1.15,2013-01-24 16:46:00,
2013-01-24 11:47:00,40.2,24.0,30.34,ESE,109,3.0,10.0,52,0.00,,,0.00,Wunderground v.1.15,2013-01-24 16:47:00,
2013-01-24 11:51:00,40.6,23.9,30.34,NNE,26,1.0,10.0,51,0.00,,,0.00,Wunderground v.1.15,2013-01-24 16:51:00,
2013-01-24 11:52:00,40.6,23.4,30.34,ENE,69,9.0,10.0,50,0.00,,,0.00,Wunderground v.1.15,2013-01-24 16:52:00,
2013-01-24 11:54:00,40.4,23.2,30.34,NNE,13,6.0,10.0,50,0.00,,,0.00,Wunderground v.1.15,2013-01-24 16:54:00,
2013-01-24 11:57:00,40.2,24.0,30.34,ENE,63,5.0,10.0,52,0.00,,,0.00,Wunderground v.1.15,2013-01-24 16:57:00,
2013-01-24 11:59:00,40.3,24.1,30.34,ENE,63,6.0,10.0,52,0.00,,,0.00,Wunderground v.1.15,2013-01-24 16:59:00,
2013-01-24 12:02:00,40.2,23.5,30.34,North,360,4.0,10.0,51,0.00,,,0.00,Wunderground v.1.15,2013-01-24 17:02:00,
2013-01-24 12:03:00,40.2,23.0,30.34,NNE,28,2.0,10.0,50,0.00,,,0.00,Wunderground v.1.15,2013-01-24 17:03:00,
2013-01-24 12:04:00,40.1,22.9,30.34,NE,45,5.0,10.0,50,0.00,,,0.00,Wunderground v.1.15,2013-01-24 17:04:00,
2013-01-24 12:07:00,40.3,22.6,30.34,ENE,63,2.0,10.0,49,0.00,,,0.00,Wunderground v.1.15,2013-01-24 17:07:00,
2013-01-24 12:08:00,40.3,22.6,30.34,ENE,63,2.0,10.0,49,0.00,,,0.00,Wunderground v.1.15,2013-01-24 17:08:00,
2013-01-24 12:09:00,40.4,22.7,30.34,ENE,63,2.0,10.0,49,0.00,,,0.00,Wunderground v.1.15,2013-01-24 17:09:00,
2013-01-24 12:12:00,40.7,23.0,30.34,ENE,69,2.0,3.0,49,0.00,,,0.00,Wunderground v.1.15,2013-01-24 17:12:00,
2013-01-24 12:13:00,40.7,23.5,30.34,ENE,69,2.0,3.0,50,0.00,,,0.00,Wunderground v.1.15,2013-01-24 17:13:00,
2013-01-24 12:14:00,40.9,23.7,30.34,ENE,78,4.0,5.0,50,0.00,,,0.00,Wunderground v.1.15,2013-01-24 17:14:00,
2013-01-24 12:17:00,41.0,22.8,30.34,ENE,67,2.0,5.0,48,0.00,,,0.00,Wunderground v.1.15,2013-01-24 17:17:00,
2013-01-24 12:18:00,41.0,25.2,30.34,NE,49,4.0,6.0,53,0.00,,,0.00,Wunderground v.1.15,2013-01-24 17:18:00,
2013-01-24 12:19:00,41.1,22.9,30.34,NNW,344,4.0,6.0,48,0.00,,,0.00,Wunderground v.1.15,2013-01-24 17:19:00,
2013-01-24 12:22:00,41.0,22.8,30.35,West,278,0.0,7.0,48,0.00,,,0.00,Wunderground v.1.15,2013-01-24 17:22:00,
2013-01-24 12:24:00,40.9,22.7,30.35,ENE,74,2.0,7.0,48,0.00,,,0.00,Wunderground v.1.15,2013-01-24 17:24:00,
2013-01-24 12:25:00,40.9,23.7,30.35,ENE,73,2.0,7.0,50,0.00,,,0.00,Wunderground v.1.15,2013-01-24 17:25:00,
2013-01-24 12:27:00,41.0,23.8,30.34,NNW,332,0.0,7.0,50,0.00,,,0.00,Wunderground v.1.15,2013-01-24 17:27:00,
2013-01-24 12:29:00,41.0,22.8,30.34,NW,323,1.0,7.0,48,0.00,,,0.00,Wunderground v.1.15,2013-01-24 17:29:00,
2013-01-24 12:30:00,41.0,23.8,30.34,WSW,240,4.0,4.0,50,0.00,,,0.00,Wunderground v.1.15,2013-01-24 17:30:00,
2013-01-24 12:32:00,41.0,24.7,30.35,North,349,2.0,5.0,52,0.00,,,0.00,Wunderground v.1.15,2013-01-24 17:32:00,
2013-01-24 12:33:00,41.0,22.8,30.35,North,355,2.0,5.0,48,0.00,,,0.00,Wunderground v.1.15,2013-01-24 17:33:00,
2013-01-24 12:34:00,41.1,22.9,30.35,NNE,19,6.0,6.0,48,0.00,,,0.00,Wunderground v.1.15,2013-01-24 17:34:00,
2013-01-24 12:35:00,41.0,22.3,30.35,ENE,78,2.0,6.0,47,0.00,,,0.00,Wunderground v.1.15,2013-01-24 17:35:00,
2013-01-24 12:38:00,41.1,22.9,30.34,NE,41,5.0,6.0,48,0.00,,,0.00,Wunderground v.1.15,2013-01-24 17:38:00,
2013-01-24 12:39:00,41.1,23.4,30.34,NE,52,1.0,6.0,49,0.00,,,0.00,Wunderground v.1.15,2013-01-24 17:39:00,
2013-01-24 12:40:00,41.2,23.9,30.35,NE,53,2.0,5.0,50,0.00,,,0.00,Wunderground v.1.15,2013-01-24 17:40:00,
2013-01-24 12:43:00,41.6,23.3,30.34,ENE,60,3.0,6.0,48,0.00,,,0.00,Wunderground v.1.15,2013-01-24 17:43:00,
2013-01-24 12:44:00,41.6,23.3,30.34,ENE,74,1.0,6.0,48,0.00,,,0.00,Wunderground v.1.15,2013-01-24 17:44:00,
2013-01-24 12:45:00,41.6,23.3,30.34,NNW,342,2.0,6.0,48,0.00,,,0.00,Wunderground v.1.15,2013-01-24 17:45:00,
2013-01-24 12:48:00,41.2,23.0,30.33,NE,51,2.0,6.0,48,0.00,,,0.00,Wunderground v.1.15,2013-01-24 17:48:00,
2013-01-24 12:50:00,41.0,22.8,30.34,East,97,4.0,4.0,48,0.00,,,0.00,Wunderground v.1.15,2013-01-24 17:50:00,
2013-01-24 12:51:00,41.0,23.3,30.33,East,96,6.0,6.0,49,0.00,,,0.00,Wunderground v.1.15,2013-01-24 17:51:00,
2013-01-24 12:53:00,40.9,22.7,30.34,East,97,3.0,7.0,48,0.00,,,0.00,Wunderground v.1.15,2013-01-24 17:53:00,
2013-01-24 12:55:00,40.9,23.7,30.34,ENE,59,4.0,7.0,50,0.00,,,0.00,Wunderground v.1.15,2013-01-24 17:55:00,
2013-01-24 12:56:00,40.9,22.7,30.34,ENE,59,2.0,7.0,48,0.00,,,0.00,Wunderground v.1.15,2013-01-24 17:56:00,
2013-01-24 12:58:00,40.8,23.1,30.34,NE,51,10.0,13.0,49,0.00,,,0.00,Wunderground v.1.15,2013-01-24 17:58:00,
2013-01-24 12:59:00,40.7,23.0,30.34,NE,43,9.0,13.0,49,0.00,,,0.00,Wunderground v.1.15,2013-01-24 17:59:00,
2013-01-24 13:01:00,40.5,22.3,30.34,ENE,60,0.0,6.0,48,0.00,,,0.00,Wunderground v.1.15,2013-01-24 18:01:00,
2013-01-24 13:04:00,40.2,22.1,30.34,ESE,105,6.0,6.0,48,0.00,,,0.00,Wunderground v.1.15,2013-01-24 18:04:00,
2013-01-24 13:06:00,40.2,22.5,30.34,NE,51,4.0,6.0,49,0.00,,,0.00,Wunderground v.1.15,2013-01-24 18:06:00,
2013-01-24 13:07:00,40.2,22.5,30.34,NE,36,4.0,6.0,49,0.00,,,0.00,Wunderground v.1.15,2013-01-24 18:07:00,
2013-01-24 13:09:00,40.1,21.5,30.34,East,88,1.0,13.0,47,0.00,,,0.00,Wunderground v.1.15,2013-01-24 18:09:00,
2013-01-24 13:10:00,40.1,22.0,30.34,NE,44,6.0,10.0,48,0.00,,,0.00,Wunderground v.1.15,2013-01-24 18:10:00,
2013-01-24 13:11:00,40.0,21.4,30.34,North,349,3.0,10.0,47,0.00,,,0.00,Wunderground v.1.15,2013-01-24 18:11:00,
2013-01-24 13:12:00,40.0,21.4,30.34,North,349,2.0,10.0,47,0.00,,,0.00,Wunderground v.1.15,2013-01-24 18:12:00,
2013-01-24 13:14:00,40.0,21.9,30.34,East,91,2.0,10.0,48,0.00,,,0.00,Wunderground v.1.15,2013-01-24 18:14:00,
2013-01-24 13:16:00,39.8,21.2,30.34,ENE,57,4.0,12.0,47,0.00,,,0.00,Wunderground v.1.15,2013-01-24 18:16:00,
2013-01-24 13:17:00,39.8,21.7,30.34,NE,37,6.0,12.0,48,0.00,,,0.00,Wunderground v.1.15,2013-01-24 18:17:00,
2013-01-24 13:19:00,39.8,21.2,30.34,ENE,57,4.0,12.0,47,0.00,,,0.00,Wunderground v.1.15,2013-01-24 18:19:00,
2013-01-24 13:21:00,39.7,21.6,30.33,NE,40,3.0,4.0,48,0.00,,,0.00,Wunderground v.1.15,2013-01-24 18:21:00,
2013-01-24 13:22:00,39.8,21.7,30.33,NE,43,3.0,4.0,48,0.00,,,0.00,Wunderground v.1.15,2013-01-24 18:22:00,
2013-01-24 13:24:00,39.8,21.7,30.33,ENE,57,3.0,4.0,48,0.00,,,0.00,Wunderground v.1.15,2013-01-24 18:24:00,
2013-01-24 13:26:00,40.0,19.8,30.33,NE,48,7.0,11.0,44,0.00,,,0.00,Wunderground v.1.15,2013-01-24 18:26:00,
2013-01-24 13:27:00,40.0,20.3,30.33,ENE,57,11.0,13.0,45,0.00,,,0.00,Wunderground v.1.15,2013-01-24 18:27:00,
2013-01-24 13:29:00,39.8,19.6,30.33,East,92,4.0,13.0,44,0.00,,,0.00,Wunderground v.1.15,2013-01-24 18:29:00,
2013-01-24 13:32:00,39.7,20.1,30.33,ENE,68,6.0,14.0,45,0.00,,,0.00,Wunderground v.1.15,2013-01-24 18:32:00,
2013-01-24 13:33:00,39.5,18.8,30.33,ENE,74,1.0,14.0,43,0.00,,,0.00,Wunderground v.1.15,2013-01-24 18:33:00,
2013-01-24 13:35:00,39.4,19.8,30.33,NW,319,4.0,14.0,45,0.00,,,0.00,Wunderground v.1.15,2013-01-24 18:35:00,
2013-01-24 13:37:00,39.5,19.9,30.34,ENE,71,2.0,14.0,45,0.00,,,0.00,Wunderground v.1.15,2013-01-24 18:37:00,
2013-01-24 13:38:00,39.5,19.4,30.34,ENE,71,2.0,14.0,44,0.00,,,0.00,Wunderground v.1.15,2013-01-24 18:38:00,
2013-01-24 13:40:00,39.6,20.0,30.33,North,5,5.0,6.0,45,0.00,,,0.00,Wunderground v.1.15,2013-01-24 18:40:00,
2013-01-24 13:43:00,39.7,19.0,30.33,NNW,327,1.0,7.0,43,0.00,,,0.00,Wunderground v.1.15,2013-01-24 18:43:00,
2013-01-24 13:44:00,39.7,18.5,30.33,NNE,22,5.0,7.0,42,0.00,,,0.00,Wunderground v.1.15,2013-01-24 18:44:00,
2013-01-24 13:45:00,39.8,18.5,30.33,NE,55,3.0,7.0,42,0.00,,,0.00,Wunderground v.1.15,2013-01-24 18:45:00,
2013-01-24 13:48:00,39.8,18.0,30.33,North,9,9.0,9.0,41,0.00,,,0.00,Wunderground v.1.15,2013-01-24 18:48:00,
2013-01-24 13:49:00,39.8,17.4,30.33,ENE,69,1.0,9.0,40,0.00,,,0.00,Wunderground v.1.15,2013-01-24 18:49:00,
2013-01-24 13:50:00,39.7,16.7,30.33,ENE,76,3.0,7.0,39,0.00,,,0.00,Wunderground v.1.15,2013-01-24 18:50:00,
2013-01-24 13:53:00,39.5,17.1,30.33,East,94,5.0,9.0,40,0.00,,,0.00,Wunderground v.1.15,2013-01-24 18:53:00,
2013-01-24 13:54:00,39.5,17.1,30.33,ENE,65,4.0,9.0,40,0.00,,,0.00,Wunderground v.1.15,2013-01-24 18:54:00,
2013-01-24 13:55:00,39.4,16.5,30.33,NE,50,4.0,9.0,39,0.00,,,0.00,Wunderground v.1.15,2013-01-24 18:55:00,
2013-01-24 13:58:00,39.3,17.0,30.32,ESE,104,1.0,10.0,40,0.00,,,0.00,Wunderground v.1.15,2013-01-24 18:58:00,
2013-01-24 14:00:00,39.3,16.4,30.32,ENE,60,6.0,10.0,39,0.00,,,0.00,Wunderground v.1.15,2013-01-24 19:00:00,
2013-01-24 14:01:00,39.2,15.1,30.32,NE,51,2.0,6.0,37,0.00,,,0.00,Wunderground v.1.15,2013-01-24 19:01:00,
2013-01-24 14:04:00,39.1,15.0,30.33,ENE,70,6.0,7.0,37,0.00,,,0.00,Wunderground v.1.15,2013-01-24 19:04:00,
2013-01-24 14:05:00,39.1,15.0,30.33,NE,46,2.0,7.0,37,0.00,,,0.00,Wunderground v.1.15,2013-01-24 19:05:00,
2013-01-24 14:06:00,39.1,15.6,30.33,NNE,24,9.0,9.0,38,0.00,,,0.00,Wunderground v.1.15,2013-01-24 19:06:00,
2013-01-24 14:09:00,39.2,15.1,30.32,NNE,17,4.0,9.0,37,0.00,,,0.00,Wunderground v.1.15,2013-01-24 19:09:00,
2013-01-24 14:10:00,39.2,15.1,30.32,NNE,30,3.0,10.0,37,0.00,,,0.00,Wunderground v.1.15,2013-01-24 19:10:00,
2013-01-24 14:11:00,39.2,15.7,30.33,NE,45,2.0,10.0,38,0.00,,,0.00,Wunderground v.1.15,2013-01-24 19:11:00,
2013-01-24 14:14:00,39.4,14.0,30.32,NNE,32,1.0,10.0,35,0.00,,,0.00,Wunderground v.1.15,2013-01-24 19:14:00,
2013-01-24 14:15:00,39.4,14.0,30.32,NE,35,4.0,10.0,35,0.00,,,0.00,Wunderground v.1.15,2013-01-24 19:15:00,
2013-01-24 14:16:00,39.3,14.5,30.32,NE,40,0.0,10.0,36,0.00,,,0.00,Wunderground v.1.15,2013-01-24 19:16:00,
2013-01-24 14:20:00,39.1,14.4,30.32,ENE,69,1.0,4.0,36,0.00,,,0.00,Wunderground v.1.15,2013-01-24 19:20:00,
2013-01-24 14:21:00,39.1,15.6,30.32,ENE,60,3.0,4.0,38,0.00,,,0.00,Wunderground v.1.15,2013-01-24 19:21:00,
2013-01-24 14:25:00,39.2,13.1,30.32,ENE,69,6.0,7.0,34,0.00,,,0.00,Wunderground v.1.15,2013-01-24 19:25:00,
2013-01-24 14:26:00,39.2,13.1,30.32,NNE,26,8.0,9.0,34,0.00,,,0.00,Wunderground v.1.15,2013-01-24 19:26:00,
2013-01-24 14:27:00,39.1,13.1,30.32,NNE,22,4.0,9.0,34,0.00,,,0.00,Wunderground v.1.15,2013-01-24 19:27:00,
2013-01-24 14:30:00,38.9,12.9,30.32,NNE,33,5.0,10.0,34,0.00,,,0.00,Wunderground v.1.15,2013-01-24 19:30:00,
2013-01-24 14:31:00,38.8,12.8,30.32,NNE,28,5.0,10.0,34,0.00,,,0.00,Wunderground v.1.15,2013-01-24 19:31:00,
2013-01-24 14:32:00,38.8,12.8,30.32,NNE,25,2.0,10.0,34,0.00,,,0.00,Wunderground v.1.15,2013-01-24 19:32:00,
2013-01-24 14:35:00,38.8,14.1,30.33,NE,37,3.0,10.0,36,0.00,,,0.00,Wunderground v.1.15,2013-01-24 19:35:00,
2013-01-24 14:36:00,38.9,14.8,30.33,NE,41,2.0,10.0,37,0.00,,,0.00,Wunderground v.1.15,2013-01-24 19:36:00,
2013-01-24 14:37:00,38.9,14.8,30.33,East,81,4.0,10.0,37,0.00,,,0.00,Wunderground v.1.15,2013-01-24 19:37:00,
2013-01-24 14:40:00,38.9,12.9,30.32,NNE,16,4.0,4.0,34,0.00,,,0.00,Wunderground v.1.15,2013-01-24 19:40:00,
2013-01-24 14:41:00,38.9,12.9,30.32,ENE,78,5.0,6.0,34,0.00,,,0.00,Wunderground v.1.15,2013-01-24 19:41:00,
2013-01-24 14:42:00,38.9,12.9,30.32,ENE,78,3.0,6.0,34,0.00,,,0.00,Wunderground v.1.15,2013-01-24 19:42:00,
2013-01-24 14:46:00,38.9,14.2,30.33,NNE,19,5.0,10.0,36,0.00,,,0.00,Wunderground v.1.15,2013-01-24 19:46:00,
2013-01-24 14:47:00,38.8,13.4,30.33,East,92,1.0,10.0,35,0.00,,,0.00,Wunderground v.1.15,2013-01-24 19:47:00,
2013-01-24 14:51:00,38.7,12.7,30.32,East,98,4.0,4.0,34,0.00,,,0.00,Wunderground v.1.15,2013-01-24 19:51:00,
2013-01-24 14:52:00,38.7,12.7,30.32,East,92,6.0,6.0,34,0.00,,,0.00,Wunderground v.1.15,2013-01-24 19:52:00,
2013-01-24 14:56:00,38.6,12.6,30.32,East,94,2.0,12.0,34,0.00,,,0.00,Wunderground v.1.15,2013-01-24 19:56:00,
2013-01-24 14:57:00,38.6,12.6,30.32,East,87,3.0,12.0,34,0.00,,,0.00,Wunderground v.1.15,2013-01-24 19:57:00,
2013-01-24 15:02:00,38.5,11.8,30.33,NE,54,1.0,9.0,33,0.00,,,0.00,Wunderground v.1.15,2013-01-24 20:02:00,
2013-01-24 15:03:00,38.5,11.8,30.33,NE,55,3.0,9.0,33,0.00,,,0.00,Wunderground v.1.15,2013-01-24 20:03:00,
2013-01-24 15:07:00,38.7,10.6,30.33,NE,52,10.0,10.0,31,0.00,,,0.00,Wunderground v.1.15,2013-01-24 20:07:00,
2013-01-24 15:08:00,38.7,10.6,30.33,NE,51,4.0,10.0,31,0.00,,,0.00,Wunderground v.1.15,2013-01-24 20:08:00,
2013-01-24 15:12:00,38.9,12.2,30.33,NNE,28,6.0,6.0,33,0.00,,,0.00,Wunderground v.1.15,2013-01-24 20:12:00,
2013-01-24 15:13:00,39.0,12.3,30.33,NNE,30,3.0,7.0,33,0.00,,,0.00,Wunderground v.1.15,2013-01-24 20:13:00,
2013-01-24 15:17:00,38.9,11.5,30.34,NW,308,6.0,7.0,32,0.00,,,0.00,Wunderground v.1.15,2013-01-24 20:17:00,
2013-01-24 15:18:00,38.9,10.8,30.34,East,84,4.0,7.0,31,0.00,,,0.00,Wunderground v.1.15,2013-01-24 20:18:00,
2013-01-24 15:22:00,38.6,10.5,30.34,East,100,2.0,3.0,31,0.00,,,0.00,Wunderground v.1.15,2013-01-24 20:22:00,
2013-01-24 15:23:00,38.7,12.0,30.34,NE,37,6.0,7.0,33,0.00,,,0.00,Wunderground v.1.15,2013-01-24 20:23:00,
2013-01-24 15:27:00,38.7,9.9,30.34,NE,51,1.0,7.0,30,0.00,,,0.00,Wunderground v.1.15,2013-01-24 20:27:00,
2013-01-24 15:28:00,38.7,9.1,30.34,NNE,33,3.0,7.0,29,0.00,,,0.00,Wunderground v.1.15,2013-01-24 20:28:00,
2013-01-24 15:29:00,38.7,9.1,30.34,NNE,33,3.0,7.0,29,0.00,,,0.00,Wunderground v.1.15,2013-01-24 20:29:00,
2013-01-24 15:32:00,38.5,10.4,30.34,ENE,68,2.0,6.0,31,0.00,,,0.00,Wunderground v.1.15,2013-01-24 20:32:00,
2013-01-24 15:33:00,38.4,9.6,30.33,ENE,68,1.0,6.0,30,0.00,,,0.00,Wunderground v.1.15,2013-01-24 20:33:00,
2013-01-24 15:34:00,38.4,10.3,30.33,ENE,68,3.0,6.0,31,0.00,,,0.00,Wunderground v.1.15,2013-01-24 20:34:00,
2013-01-24 15:37:00,38.4,10.3,30.34,ENE,72,3.0,7.0,31,0.00,,,0.00,Wunderground v.1.15,2013-01-24 20:37:00,
2013-01-24 15:38:00,38.5,11.1,30.34,ENE,71,3.0,7.0,32,0.00,,,0.00,Wunderground v.1.15,2013-01-24 20:38:00,
2013-01-24 15:39:00,38.4,11.1,30.34,ENE,72,1.0,7.0,32,0.00,,,0.00,Wunderground v.1.15,2013-01-24 20:39:00,
2013-01-24 15:42:00,38.4,10.3,30.34,North,5,7.0,10.0,31,0.00,,,0.00,Wunderground v.1.15,2013-01-24 20:42:00,
2013-01-24 15:44:00,38.3,9.5,30.34,East,80,5.0,10.0,30,0.00,,,0.00,Wunderground v.1.15,2013-01-24 20:44:00,
2013-01-24 15:48:00,38.1,9.4,30.34,ENE,71,1.0,10.0,30,0.00,,,0.00,Wunderground v.1.15,2013-01-24 20:48:00,
2013-01-24 15:49:00,38.0,9.3,30.34,NNE,21,1.0,10.0,30,0.00,,,0.00,Wunderground v.1.15,2013-01-24 20:49:00,
2013-01-24 15:53:00,38.1,11.5,30.34,NE,34,1.0,7.0,33,0.00,,,0.00,Wunderground v.1.15,2013-01-24 20:53:00,
2013-01-24 15:54:00,38.1,11.5,30.34,NE,34,0.0,7.0,33,0.00,,,0.00,Wunderground v.1.15,2013-01-24 20:54:00,
2013-01-24 15:58:00,38.4,11.8,30.34,NE,34,1.0,7.0,33,0.00,,,0.00,Wunderground v.1.15,2013-01-24 20:58:00,
2013-01-24 15:59:00,38.5,11.8,30.34,NE,36,2.0,7.0,33,0.00,,,0.00,Wunderground v.1.15,2013-01-24 20:59:00,
2013-01-24 16:00:00,38.5,11.8,30.34,NE,36,3.0,3.0,33,0.00,,,0.00,Wunderground v.1.15,2013-01-24 21:00:00,
2013-01-24 16:03:00,38.6,11.9,30.34,NE,38,0.0,5.0,33,0.00,,,0.00,Wunderground v.1.15,2013-01-24 21:03:00,
2013-01-24 16:04:00,38.7,12.7,30.34,NE,40,1.0,5.0,34,0.00,,,0.00,Wunderground v.1.15,2013-01-24 21:04:00,
2013-01-24 16:05:00,38.7,12.7,30.34,NE,41,1.0,5.0,34,0.00,,,0.00,Wunderground v.1.15,2013-01-24 21:05:00,
2013-01-24 16:06:00,38.7,13.4,30.34,NE,42,3.0,5.0,35,0.00,,,0.00,Wunderground v.1.15,2013-01-24 21:06:00,
2013-01-24 16:08:00,38.6,10.5,30.34,NE,49,2.0,8.0,31,0.00,,,0.00,Wunderground v.1.15,2013-01-24 21:08:00,
2013-01-24 16:10:00,38.5,11.1,30.34,NNW,345,0.0,2.0,32,0.00,,,0.00,Wunderground v.1.15,2013-01-24 21:10:00,
2013-01-24 16:11:00,38.5,11.1,30.35,North,355,0.0,2.0,32,0.00,,,0.00,Wunderground v.1.15,2013-01-24 21:11:00,
2013-01-24 16:13:00,38.5,10.4,30.34,ENE,72,1.0,4.0,31,0.00,,,0.00,Wunderground v.1.15,2013-01-24 21:13:00,
2013-01-24 16:15:00,38.5,11.8,30.34,ENE,72,1.0,4.0,33,0.00,,,0.00,Wunderground v.1.15,2013-01-24 21:15:00,
2013-01-24 16:16:00,38.5,11.1,30.34,NE,49,2.0,6.0,32,0.00,,,0.00,Wunderground v.1.15,2013-01-24 21:16:00,
2013-01-24 16:18:00,38.5,11.1,30.34,NE,49,1.0,6.0,32,0.00,,,0.00,Wunderground v.1.15,2013-01-24 21:18:00,
2013-01-24 16:20:00,38.4,11.1,30.35,NE,40,1.0,5.0,32,0.00,,,0.00,Wunderground v.1.15,2013-01-24 21:20:00,
2013-01-24 16:21:00,38.4,9.6,30.35,ENE,76,3.0,5.0,30,0.00,,,0.00,Wunderground v.1.15,2013-01-24 21:21:00,
2013-01-24 16:22:00,38.4,9.6,30.35,East,92,1.0,6.0,30,0.00,,,0.00,Wunderground v.1.15,2013-01-24 21:22:00,
2013-01-24 16:24:00,38.2,10.9,30.35,East,100,4.0,7.0,32,0.00,,,0.00,Wunderground v.1.15,2013-01-24 21:24:00,
2013-01-24 16:26:00,38.0,10.7,30.35,East,88,3.0,7.0,32,0.00,,,0.00,Wunderground v.1.15,2013-01-24 21:26:00,
2013-01-24 16:27:00,38.0,10.0,30.35,East,87,0.0,7.0,31,0.00,,,0.00,Wunderground v.1.15,2013-01-24 21:27:00,
2013-01-24 16:29:00,37.9,9.9,30.35,ESE,108,1.0,7.0,31,0.00,,,0.00,Wunderground v.1.15,2013-01-24 21:29:00,
2013-01-24 16:32:00,37.8,10.5,30.35,ENE,61,6.0,6.0,32,0.00,,,0.00,Wunderground v.1.15,2013-01-24 21:32:00,
2013-01-24 16:35:00,37.7,9.7,30.34,East,99,3.0,7.0,31,0.00,,,0.00,Wunderground v.1.15,2013-01-24 21:35:00,
2013-01-24 16:37:00,37.6,11.0,30.35,ENE,65,0.0,7.0,33,0.00,,,0.00,Wunderground v.1.15,2013-01-24 21:37:00,
2013-01-24 16:40:00,37.5,9.6,30.35,North,9,1.0,2.0,31,0.00,,,0.00,Wunderground v.1.15,2013-01-24 21:40:00,
2013-01-24 16:42:00,37.5,9.6,30.35,North,355,4.0,6.0,31,0.00,,,0.00,Wunderground v.1.15,2013-01-24 21:42:00,
2013-01-24 16:45:00,37.4,10.2,30.34,ENE,67,3.0,6.0,32,0.00,,,0.00,Wunderground v.1.15,2013-01-24 21:45:00,
2013-01-24 16:47:00,37.4,10.2,30.35,East,97,2.0,6.0,32,0.00,,,0.00,Wunderground v.1.15,2013-01-24 21:47:00,
2013-01-24 16:50:00,37.2,9.3,30.35,ENE,60,2.0,6.0,31,0.00,,,0.00,Wunderground v.1.15,2013-01-24 21:50:00,
2013-01-24 16:52:00,37.1,9.2,30.35,ENE,68,2.0,6.0,31,0.00,,,0.00,Wunderground v.1.15,2013-01-24 21:52:00,
2013-01-24 16:53:00,37.0,9.1,30.35,ENE,68,1.0,6.0,31,0.00,,,0.00,Wunderground v.1.15,2013-01-24 21:53:00,
2013-01-24 16:55:00,36.8,9.7,30.34,NE,55,1.0,8.0,32,0.00,,,0.00,Wunderground v.1.15,2013-01-24 21:55:00,
2013-01-24 16:57:00,36.6,8.8,30.35,NE,51,5.0,8.0,31,0.00,,,0.00,Wunderground v.1.15,2013-01-24 21:57:00,
2013-01-24 16:58:00,36.6,8.8,30.35,ENE,60,3.0,8.0,31,0.00,,,0.00,Wunderground v.1.15,2013-01-24 21:58:00,
2013-01-24 17:01:00,36.4,9.3,30.35,NNE,28,2.0,5.0,32,0.00,,,0.00,Wunderground v.1.15,2013-01-24 22:01:00,
2013-01-24 17:02:00,36.2,8.4,30.35,NNE,33,1.0,6.0,31,0.00,,,0.00,Wunderground v.1.15,2013-01-24 22:02:00,
2013-01-24 17:03:00,36.2,9.1,30.35,NE,34,0.0,6.0,32,0.00,,,0.00,Wunderground v.1.15,2013-01-24 22:03:00,
2013-01-24 17:06:00,36.1,9.7,30.36,NNE,33,0.0,6.0,33,0.00,,,0.00,Wunderground v.1.15,2013-01-24 22:06:00,
2013-01-24 17:07:00,36.0,9.6,30.36,NNE,33,0.0,6.0,33,0.00,,,0.00,Wunderground v.1.15,2013-01-24 22:07:00,
2013-01-24 17:08:00,35.9,9.5,30.36,NE,35,1.0,6.0,33,0.00,,,0.00,Wunderground v.1.15,2013-01-24 22:08:00,
2013-01-24 17:09:00,35.9,9.5,30.36,NE,35,1.0,6.0,33,0.00,,,0.00,Wunderground v.1.15,2013-01-24 22:09:00,
2013-01-24 17:11:00,35.7,10.0,30.36,NE,34,0.0,2.0,34,0.00,,,0.00,Wunderground v.1.15,2013-01-24 22:11:00,
2013-01-24 17:13:00,35.7,10.0,30.36,NE,34,0.0,2.0,34,0.00,,,0.00,Wunderground v.1.15,2013-01-24 22:13:00,
2013-01-24 17:14:00,35.6,9.9,30.36,NNE,33,1.0,2.0,34,0.00,,,0.00,Wunderground v.1.15,2013-01-24 22:14:00,
2013-01-24 17:16:00,35.4,10.4,30.36,NW,307,0.0,11.0,35,0.00,,,0.00,Wunderground v.1.15,2013-01-24 22:16:00,
2013-01-24 17:18:00,35.3,9.7,30.35,East,79,6.0,11.0,34,0.00,,,0.00,Wunderground v.1.15,2013-01-24 22:18:00,
2013-01-24 17:19:00,35.3,9.0,30.35,ENE,60,1.0,11.0,33,0.00,,,0.00,Wunderground v.1.15,2013-01-24 22:19:00,
2013-01-24 17:22:00,35.1,10.2,30.35,SE,127,1.0,7.0,35,0.00,,,0.00,Wunderground v.1.15,2013-01-24 22:22:00,
2013-01-24 17:24:00,34.9,10.0,30.35,ENE,69,0.0,7.0,35,0.00,,,0.00,Wunderground v.1.15,2013-01-24 22:24:00,
2013-01-24 17:27:00,34.8,9.9,30.36,ESE,105,0.0,7.0,35,0.00,,,0.00,Wunderground v.1.15,2013-01-24 22:27:00,
2013-01-24 17:29:00,34.6,9.7,30.35,ESE,105,0.0,7.0,35,0.00,,,0.00,Wunderground v.1.15,2013-01-24 22:29:00,
2013-01-24 17:32:00,34.6,9.7,30.35,NNE,32,3.0,10.0,35,0.00,,,0.00,Wunderground v.1.15,2013-01-24 22:32:00,
2013-01-24 17:34:00,34.5,9.6,30.35,East,95,5.0,10.0,35,0.00,,,0.00,Wunderground v.1.15,2013-01-24 22:34:00,
2013-01-24 17:35:00,34.5,9.6,30.35,North,5,3.0,10.0,35,0.00,,,0.00,Wunderground v.1.15,2013-01-24 22:35:00,
2013-01-24 17:37:00,34.4,9.5,30.35,ENE,76,3.0,10.0,35,0.00,,,0.00,Wunderground v.1.15,2013-01-24 22:37:00,
2013-01-24 17:39:00,34.4,10.2,30.35,East,90,0.0,10.0,36,0.00,,,0.00,Wunderground v.1.15,2013-01-24 22:39:00,
2013-01-24 17:40:00,34.4,10.2,30.35,East,90,0.0,3.0,36,0.00,,,0.00,Wunderground v.1.15,2013-01-24 22:40:00,
2013-01-24 17:42:00,34.4,10.2,30.36,East,90,1.0,3.0,36,0.00,,,0.00,Wunderground v.1.15,2013-01-24 22:42:00,
2013-01-24 17:44:00,34.4,10.2,30.36,East,94,0.0,5.0,36,0.00,,,0.00,Wunderground v.1.15,2013-01-24 22:44:00,
2013-01-24 17:45:00,34.4,10.8,30.36,East,93,0.0,5.0,37,0.00,,,0.00,Wunderground v.1.15,2013-01-24 22:45:00,
2013-01-24 17:48:00,34.2,10.6,30.35,East,93,1.0,5.0,37,0.00,,,0.00,Wunderground v.1.15,2013-01-24 22:48:00,
2013-01-24 17:50:00,34.1,9.9,30.35,East,93,0.0,0.0,36,0.00,,,0.00,Wunderground v.1.15,2013-01-24 22:50:00,
2013-01-24 17:53:00,33.8,10.2,30.36,East,93,0.0,2.0,37,0.00,,,0.00,Wunderground v.1.15,2013-01-24 22:53:00,
2013-01-24 17:55:00,33.7,10.7,30.36,East,92,1.0,2.0,38,0.00,,,0.00,Wunderground v.1.15,2013-01-24 22:55:00,
2013-01-24 17:56:00,33.7,10.1,30.36,East,93,0.0,2.0,37,0.00,,,0.00,Wunderground v.1.15,2013-01-24 22:56:00,
2013-01-24 17:59:00,33.4,9.9,30.35,East,93,3.0,3.0,37,0.00,,,0.00,Wunderground v.1.15,2013-01-24 22:59:00,
2013-01-24 18:00:00,33.3,9.2,30.36,East,92,3.0,4.0,36,0.00,,,0.00,Wunderground v.1.15,2013-01-24 23:00:00,
2013-01-24 18:01:00,33.2,9.1,30.36,East,93,3.0,4.0,36,0.00,,,0.00,Wunderground v.1.15,2013-01-24 23:01:00,
2013-01-24 18:04:00,33.1,10.2,30.37,East,93,0.0,4.0,38,0.00,,,0.00,Wunderground v.1.15,2013-01-24 23:04:00,
2013-01-24 18:05:00,33.1,9.6,30.37,East,93,1.0,4.0,37,0.00,,,0.00,Wunderground v.1.15,2013-01-24 23:05:00,
2013-01-24 18:06:00,33.0,10.1,30.37,East,93,1.0,4.0,38,0.00,,,0.00,Wunderground v.1.15,2013-01-24 23:06:00,
2013-01-24 18:09:00,32.9,10.0,30.37,East,92,1.0,4.0,38,0.00,,,0.00,Wunderground v.1.15,2013-01-24 23:09:00,
2013-01-24 18:10:00,32.9,9.4,30.36,East,92,0.0,1.0,37,0.00,,,0.00,Wunderground v.1.15,2013-01-24 23:10:00,
2013-01-24 18:11:00,32.8,9.9,30.36,East,92,0.0,1.0,38,0.00,,,0.00,Wunderground v.1.15,2013-01-24 23:11:00,
2013-01-24 18:14:00,32.8,9.9,30.37,East,92,0.0,1.0,38,0.00,,,0.00,Wunderground v.1.15,2013-01-24 23:14:00,
2013-01-24 18:15:00,32.7,9.8,30.37,East,92,0.0,1.0,38,0.00,,,0.00,Wunderground v.1.15,2013-01-24 23:15:00,
2013-01-24 18:16:00,32.7,9.8,30.37,East,92,0.0,1.0,38,0.00,,,0.00,Wunderground v.1.15,2013-01-24 23:16:00,
2013-01-24 18:18:00,32.6,9.8,30.37,East,92,1.0,1.0,38,0.00,,,0.00,Wunderground v.1.15,2013-01-24 23:18:00,
2013-01-24 18:19:00,32.6,9.8,30.37,East,92,0.0,2.0,38,0.00,,,0.00,Wunderground v.1.15,2013-01-24 23:19:00,
2013-01-24 18:20:00,32.5,9.7,30.37,East,92,0.0,0.0,38,0.00,,,0.00,Wunderground v.1.15,2013-01-24 23:20:00,
2013-01-24 18:21:00,32.5,9.7,30.37,East,92,1.0,1.0,38,0.00,,,0.00,Wunderground v.1.15,2013-01-24 23:21:00,
2013-01-24 18:23:00,32.4,10.2,30.37,East,92,0.0,2.0,39,0.00,,,0.00,Wunderground v.1.15,2013-01-24 23:23:00,
2013-01-24 18:25:00,32.3,9.5,30.37,East,92,0.0,2.0,38,0.00,,,0.00,Wunderground v.1.15,2013-01-24 23:25:00,
2013-01-24 18:26:00,32.2,9.4,30.37,East,92,0.0,3.0,38,0.00,,,0.00,Wunderground v.1.15,2013-01-24 23:26:00,
2013-01-24 18:28:00,32.2,9.4,30.37,East,92,3.0,3.0,38,0.00,,,0.00,Wunderground v.1.15,2013-01-24 23:28:00,
2013-01-24 18:30:00,32.1,9.9,30.38,East,92,1.0,1.0,39,0.00,,,0.00,Wunderground v.1.15,2013-01-24 23:30:00,
2013-01-24 18:31:00,32.1,9.9,30.38,East,92,0.0,1.0,39,0.00,,,0.00,Wunderground v.1.15,2013-01-24 23:31:00,
2013-01-24 18:33:00,32.0,9.2,30.38,East,92,0.0,1.0,38,0.00,,,0.00,Wunderground v.1.15,2013-01-24 23:33:00,
2013-01-24 18:35:00,32.0,9.2,30.37,East,92,2.0,2.0,38,0.00,,,0.00,Wunderground v.1.15,2013-01-24 23:35:00,
2013-01-24 18:36:00,32.0,9.2,30.37,East,92,0.0,2.0,38,0.00,,,0.00,Wunderground v.1.15,2013-01-24 23:36:00,
2013-01-24 18:37:00,32.0,9.2,30.37,East,92,0.0,2.0,38,0.00,,,0.00,Wunderground v.1.15,2013-01-24 23:37:00,
2013-01-24 18:38:00,31.9,9.1,30.38,East,92,0.0,2.0,38,0.00,,,0.00,Wunderground v.1.15,2013-01-24 23:38:00,
2013-01-24 18:40:00,32.0,9.8,30.38,East,92,1.0,1.0,39,0.00,,,0.00,Wunderground v.1.15,2013-01-24 23:40:00,
2013-01-24 18:41:00,32.0,9.8,30.38,East,92,1.0,4.0,39,0.00,,,0.00,Wunderground v.1.15,2013-01-24 23:41:00,
2013-01-24 18:42:00,31.9,9.7,30.38,East,92,0.0,4.0,39,0.00,,,0.00,Wunderground v.1.15,2013-01-24 23:42:00,
2013-01-24 18:44:00,31.9,9.7,30.37,East,92,1.0,4.0,39,0.00,,,0.00,Wunderground v.1.15,2013-01-24 23:44:00,
2013-01-24 18:45:00,31.8,9.6,30.37,East,92,0.0,4.0,39,0.00,,,0.00,Wunderground v.1.15,2013-01-24 23:45:00,
2013-01-24 18:47:00,31.8,9.6,30.38,East,92,0.0,4.0,39,0.00,,,0.00,Wunderground v.1.15,2013-01-24 23:47:00,
2013-01-24 18:49:00,31.7,9.5,30.38,East,92,0.0,4.0,39,0.00,,,0.00,Wunderground v.1.15,2013-01-24 23:49:00,
2013-01-24 18:50:00,31.6,9.4,30.38,East,92,0.0,0.0,39,0.00,,,0.00,Wunderground v.1.15,2013-01-24 23:50:00,
2013-01-24 18:52:00,31.5,9.9,30.38,East,92,0.0,0.0,40,0.00,,,0.00,Wunderground v.1.15,2013-01-24 23:52:00,
2013-01-24 18:54:00,31.5,9.9,30.38,East,92,0.0,1.0,40,0.00,,,0.00,Wunderground v.1.15,2013-01-24 23:54:00,
2013-01-24 18:55:00,31.4,9.8,30.38,East,92,0.0,1.0,40,0.00,,,0.00,Wunderground v.1.15,2013-01-24 23:55:00,
2013-01-24 18:57:00,31.2,9.6,30.37,East,92,0.0,1.0,40,0.00,,,0.00,Wunderground v.1.15,2013-01-24 23:57:00,
2013-01-24 18:59:00,31.1,9.6,30.38,East,92,0.0,1.0,40,0.00,,,0.00,Wunderground v.1.15,2013-01-24 23:59:00,
2013-01-24 19:01:00,31.0,10.0,30.38,East,92,0.0,2.0,41,0.00,,,0.00,Wunderground v.1.15,2013-01-25 00:01:00,
2013-01-24 19:03:00,30.8,9.8,30.38,East,92,0.0,2.0,41,0.00,,,0.00,Wunderground v.1.15,2013-01-25 00:03:00,
2013-01-24 19:04:00,30.8,9.8,30.38,East,92,0.0,2.0,41,0.00,,,0.00,Wunderground v.1.15,2013-01-25 00:04:00,
2013-01-24 19:06:00,30.6,9.1,30.38,East,92,0.0,4.0,40,0.00,,,0.00,Wunderground v.1.15,2013-01-25 00:06:00,
2013-01-24 19:08:00,30.6,9.7,30.39,East,92,0.0,4.0,41,0.00,,,0.00,Wunderground v.1.15,2013-01-25 00:08:00,
2013-01-24 19:09:00,30.6,9.7,30.39,East,92,0.0,4.0,41,0.00,,,0.00,Wunderground v.1.15,2013-01-25 00:09:00,
2013-01-24 19:11:00,30.5,10.1,30.39,East,92,0.0,1.0,42,0.00,,,0.00,Wunderground v.1.15,2013-01-25 00:11:00,
2013-01-24 19:13:00,30.4,10.0,30.39,East,92,1.0,1.0,42,0.00,,,0.00,Wunderground v.1.15,2013-01-25 00:13:00,
2013-01-24 19:15:00,30.4,10.0,30.39,East,92,1.0,1.0,42,0.00,,,0.00,Wunderground v.1.15,2013-01-25 00:15:00,
2013-01-24 19:16:00,30.3,10.4,30.39,East,92,0.0,1.0,43,0.00,,,0.00,Wunderground v.1.15,2013-01-25 00:16:00,
2013-01-24 19:19:00,30.1,10.3,30.39,East,92,1.0,1.0,43,0.00,,,0.00,Wunderground v.1.15,2013-01-25 00:19:00,
2013-01-24 19:20:00,30.1,10.3,30.39,East,92,0.0,0.0,43,0.00,,,0.00,Wunderground v.1.15,2013-01-25 00:20:00,
2013-01-24 19:22:00,30.0,10.2,30.38,East,92,0.0,0.0,43,0.00,,,0.00,Wunderground v.1.15,2013-01-25 00:22:00,
2013-01-24 19:25:00,29.8,10.5,30.38,East,92,0.0,4.0,44,0.00,,,0.00,Wunderground v.1.15,2013-01-25 00:25:00,
2013-01-24 19:26:00,29.7,10.4,30.38,East,92,0.0,4.0,44,0.00,,,0.00,Wunderground v.1.15,2013-01-25 00:26:00,
2013-01-24 19:27:00,29.7,10.4,30.38,East,92,0.0,4.0,44,0.00,,,0.00,Wunderground v.1.15,2013-01-25 00:27:00,
2013-01-24 19:30:00,29.6,10.3,30.38,East,92,1.0,1.0,44,0.00,,,0.00,Wunderground v.1.15,2013-01-25 00:30:00,
2013-01-24 19:31:00,29.5,10.2,30.38,East,92,0.0,2.0,44,0.00,,,0.00,Wunderground v.1.15,2013-01-25 00:31:00,
2013-01-24 19:32:00,29.5,10.7,30.38,East,92,0.0,2.0,45,0.00,,,0.00,Wunderground v.1.15,2013-01-25 00:32:00,
2013-01-24 19:35:00,29.4,10.6,30.38,East,92,0.0,2.0,45,0.00,,,0.00,Wunderground v.1.15,2013-01-25 00:35:00,
2013-01-24 19:36:00,29.4,12.1,30.38,East,92,0.0,2.0,48,0.00,,,0.00,Wunderground v.1.15,2013-01-25 00:36:00,
2013-01-24 19:37:00,29.4,10.6,30.38,East,92,0.0,2.0,45,0.00,,,0.00,Wunderground v.1.15,2013-01-25 00:37:00,
2013-01-24 19:40:00,29.4,11.1,30.37,East,92,1.0,1.0,46,0.00,,,0.00,Wunderground v.1.15,2013-01-25 00:40:00,
2013-01-24 19:41:00,29.4,10.6,30.37,East,92,0.0,2.0,45,0.00,,,0.00,Wunderground v.1.15,2013-01-25 00:41:00,
2013-01-24 19:42:00,29.4,11.1,30.37,East,92,1.0,2.0,46,0.00,,,0.00,Wunderground v.1.15,2013-01-25 00:42:00,
2013-01-24 19:45:00,29.4,12.1,30.38,East,92,0.0,2.0,48,0.00,,,0.00,Wunderground v.1.15,2013-01-25 00:45:00,
2013-01-24 19:47:00,29.4,12.1,30.38,East,92,0.0,2.0,48,0.00,,,0.00,Wunderground v.1.15,2013-01-25 00:47:00,
2013-01-24 19:49:00,29.3,12.0,30.37,East,92,0.0,2.0,48,0.00,,,0.00,Wunderground v.1.15,2013-01-25 00:49:00,
2013-01-24 19:50:00,29.3,12.0,30.37,East,92,0.0,2.0,48,0.00,,,0.00,Wunderground v.1.15,2013-01-25 00:50:00,
2013-01-24 19:52:00,29.2,11.4,30.37,East,92,0.0,2.0,47,0.00,,,0.00,Wunderground v.1.15,2013-01-25 00:52:00,
2013-01-24 19:54:00,29.2,11.4,30.37,East,92,2.0,3.0,47,0.00,,,0.00,Wunderground v.1.15,2013-01-25 00:54:00,
2013-01-24 19:56:00,29.2,11.4,30.37,East,92,1.0,3.0,47,0.00,,,0.00,Wunderground v.1.15,2013-01-25 00:56:00,
2013-01-24 19:58:00,29.2,11.9,30.37,East,95,0.0,3.0,48,0.00,,,0.00,Wunderground v.1.15,2013-01-25 00:58:00,
2013-01-24 19:59:00,29.2,11.9,30.37,East,95,0.0,3.0,48,0.00,,,0.00,Wunderground v.1.15,2013-01-25 00:59:00,
2013-01-24 20:01:00,29.1,12.3,30.37,East,95,0.0,0.0,49,0.00,,,0.00,Wunderground v.1.15,2013-01-25 01:01:00,
2013-01-24 20:03:00,29.0,12.2,30.37,East,94,3.0,3.0,49,0.00,,,0.00,Wunderground v.1.15,2013-01-25 01:03:00,
2013-01-24 20:05:00,28.9,11.6,30.37,East,92,2.0,5.0,48,0.00,,,0.00,Wunderground v.1.15,2013-01-25 01:05:00,
2013-01-24 20:06:00,28.9,12.1,30.37,East,91,1.0,5.0,49,0.00,,,0.00,Wunderground v.1.15,2013-01-25 01:06:00,
2013-01-24 20:08:00,28.9,11.6,30.37,East,92,1.0,5.0,48,0.00,,,0.00,Wunderground v.1.15,2013-01-25 01:08:00,
2013-01-24 20:09:00,28.8,11.6,30.37,East,91,0.0,5.0,48,0.00,,,0.00,Wunderground v.1.15,2013-01-25 01:09:00,
2013-01-24 20:10:00,28.9,11.6,30.37,East,86,1.0,1.0,48,0.00,,,0.00,Wunderground v.1.15,2013-01-25 01:10:00,
2013-01-24 20:11:00,28.9,11.2,30.37,East,86,1.0,2.0,47,0.00,,,0.00,Wunderground v.1.15,2013-01-25 01:11:00,
2013-01-24 20:13:00,28.9,11.6,30.37,East,86,0.0,3.0,48,0.00,,,0.00,Wunderground v.1.15,2013-01-25 01:13:00,
2013-01-24 20:14:00,29.0,11.7,30.37,East,86,1.0,3.0,48,0.00,,,0.00,Wunderground v.1.15,2013-01-25 01:14:00,
2013-01-24 20:15:00,29.0,11.3,30.36,East,86,1.0,3.0,47,0.00,,,0.00,Wunderground v.1.15,2013-01-25 01:15:00,
2013-01-24 20:17:00,29.0,11.3,30.36,East,91,2.0,4.0,47,0.00,,,0.00,Wunderground v.1.15,2013-01-25 01:17:00,
2013-01-24 20:18:00,29.1,11.4,30.36,ENE,57,0.0,5.0,47,0.00,,,0.00,Wunderground v.1.15,2013-01-25 01:18:00,
2013-01-24 20:19:00,29.1,11.4,30.36,NE,56,0.0,5.0,47,0.00,,,0.00,Wunderground v.1.15,2013-01-25 01:19:00,
2013-01-24 20:20:00,29.2,11.4,30.36,ENE,71,5.0,6.0,47,0.00,,,0.00,Wunderground v.1.15,2013-01-25 01:20:00,
2013-01-24 20:22:00,29.1,11.4,30.36,ENE,71,0.0,6.0,47,0.00,,,0.00,Wunderground v.1.15,2013-01-25 01:22:00,
2013-01-24 20:24:00,29.2,11.4,30.36,ENE,59,1.0,6.0,47,0.00,,,0.00,Wunderground v.1.15,2013-01-25 01:24:00,
2013-01-24 20:25:00,29.2,11.4,30.36,ENE,59,1.0,6.0,47,0.00,,,0.00,Wunderground v.1.15,2013-01-25 01:25:00,
2013-01-24 20:27:00,29.2,11.0,30.36,ENE,59,2.0,6.0,46,0.00,,,0.00,Wunderground v.1.15,2013-01-25 01:27:00,
2013-01-24 20:29:00,29.3,10.6,30.36,West,261,0.0,6.0,45,0.00,,,0.00,Wunderground v.1.15,2013-01-25 01:29:00,
2013-01-24 20:30:00,29.3,11.1,30.36,West,262,1.0,2.0,46,0.00,,,0.00,Wunderground v.1.15,2013-01-25 01:30:00,
2013-01-24 20:32:00,29.4,11.1,30.37,West,262,2.0,2.0,46,0.00,,,0.00,Wunderground v.1.15,2013-01-25 01:32:00,
2013-01-24 20:34:00,29.4,11.1,30.37,NNW,330,0.0,2.0,46,0.00,,,0.00,Wunderground v.1.15,2013-01-25 01:34:00,
2013-01-24 20:35:00,29.4,11.1,30.37,NNW,342,0.0,4.0,46,0.00,,,0.00,Wunderground v.1.15,2013-01-25 01:35:00,
2013-01-24 20:38:00,29.4,11.1,30.37,NNW,342,0.0,4.0,46,0.00,,,0.00,Wunderground v.1.15,2013-01-25 01:38:00,
2013-01-24 20:39:00,29.4,11.1,30.37,NNW,342,0.0,4.0,46,0.00,,,0.00,Wunderground v.1.15,2013-01-25 01:39:00,
2013-01-24 20:41:00,29.4,11.1,30.37,NNW,342,2.0,3.0,46,0.00,,,0.00,Wunderground v.1.15,2013-01-25 01:41:00,
2013-01-24 20:43:00,29.3,11.1,30.37,NNE,15,0.0,3.0,46,0.00,,,0.00,Wunderground v.1.15,2013-01-25 01:43:00,
2013-01-24 20:44:00,29.3,11.1,30.36,NNE,15,1.0,3.0,46,0.00,,,0.00,Wunderground v.1.15,2013-01-25 01:44:00,
2013-01-24 20:45:00,29.3,11.1,30.36,NNE,15,0.0,3.0,46,0.00,,,0.00,Wunderground v.1.15,2013-01-25 01:45:00,
2013-01-24 20:47:00,29.3,10.6,30.36,ENE,74,1.0,3.0,45,0.00,,,0.00,Wunderground v.1.15,2013-01-25 01:47:00,
2013-01-24 20:48:00,29.2,11.0,30.36,ENE,74,1.0,3.0,46,0.00,,,0.00,Wunderground v.1.15,2013-01-25 01:48:00,
2013-01-24 20:50:00,29.2,11.0,30.36,ENE,74,3.0,3.0,46,0.00,,,0.00,Wunderground v.1.15,2013-01-25 01:50:00,
2013-01-24 20:52:00,29.3,11.1,30.36,ENE,74,1.0,4.0,46,0.00,,,0.00,Wunderground v.1.15,2013-01-25 01:52:00,
2013-01-24 20:54:00,29.3,10.6,30.36,ENE,73,2.0,4.0,45,0.00,,,0.00,Wunderground v.1.15,2013-01-25 01:54:00,
2013-01-24 20:55:00,29.3,11.1,30.36,ENE,72,1.0,4.0,46,0.00,,,0.00,Wunderground v.1.15,2013-01-25 01:55:00,
2013-01-24 20:57:00,29.3,11.1,30.36,ENE,71,4.0,5.0,46,0.00,,,0.00,Wunderground v.1.15,2013-01-25 01:57:00,
2013-01-24 20:59:00,29.3,11.1,30.36,ENE,67,0.0,5.0,46,0.00,,,0.00,Wunderground v.1.15,2013-01-25 01:59:00,
2013-01-24 21:00:00,29.3,11.1,30.36,ENE,67,0.0,2.0,46,0.00,,,0.00,Wunderground v.1.15,2013-01-25 02:00:00,
2013-01-24 21:01:00,29.3,11.1,30.36,ENE,73,1.0,4.0,46,0.00,,,0.00,Wunderground v.1.15,2013-01-25 02:01:00,
2013-01-24 21:02:00,29.3,11.1,30.35,ENE,71,1.0,4.0,46,0.00,,,0.00,Wunderground v.1.15,2013-01-25 02:02:00,
2013-01-24 21:04:00,29.4,10.6,30.36,ESE,114,4.0,5.0,45,0.00,,,0.00,Wunderground v.1.15,2013-01-25 02:04:00,
2013-01-24 21:06:00,29.4,10.6,30.36,NE,36,3.0,7.0,45,0.00,,,0.00,Wunderground v.1.15,2013-01-25 02:06:00,
2013-01-24 21:07:00,29.4,10.6,30.36,NE,36,1.0,7.0,45,0.00,,,0.00,Wunderground v.1.15,2013-01-25 02:07:00,
2013-01-24 21:09:00,29.5,10.7,30.36,NNE,29,1.0,7.0,45,0.00,,,0.00,Wunderground v.1.15,2013-01-25 02:09:00,
2013-01-24 21:11:00,29.5,10.7,30.36,NNE,29,0.0,2.0,45,0.00,,,0.00,Wunderground v.1.15,2013-01-25 02:11:00,
2013-01-24 21:13:00,29.5,10.7,30.36,NNE,28,2.0,3.0,45,0.00,,,0.00,Wunderground v.1.15,2013-01-25 02:13:00,
2013-01-24 21:15:00,29.5,10.7,30.36,ENE,59,4.0,4.0,45,0.00,,,0.00,Wunderground v.1.15,2013-01-25 02:15:00,
2013-01-24 21:16:00,29.5,10.2,30.36,ENE,59,1.0,4.0,44,0.00,,,0.00,Wunderground v.1.15,2013-01-25 02:16:00,
2013-01-24 21:18:00,29.5,10.2,30.36,ENE,61,0.0,5.0,44,0.00,,,0.00,Wunderground v.1.15,2013-01-25 02:18:00,
2013-01-24 21:20:00,29.5,10.7,30.36,ENE,61,1.0,3.0,45,0.00,,,0.00,Wunderground v.1.15,2013-01-25 02:20:00,
2013-01-24 21:21:00,29.5,10.2,30.36,ENE,61,2.0,3.0,44,0.00,,,0.00,Wunderground v.1.15,2013-01-25 02:21:00,
2013-01-24 21:23:00,29.5,10.2,30.36,ENE,61,0.0,3.0,44,0.00,,,0.00,Wunderground v.1.15,2013-01-25 02:23:00,
2013-01-24 21:25:00,29.4,10.6,30.36,ENE,61,0.0,3.0,45,0.00,,,0.00,Wunderground v.1.15,2013-01-25 02:25:00,
2013-01-24 21:27:00,29.4,10.1,30.36,ENE,61,1.0,3.0,44,0.00,,,0.00,Wunderground v.1.15,2013-01-25 02:27:00,
2013-01-24 21:29:00,29.3,10.1,30.35,ENE,61,1.0,3.0,44,0.00,,,0.00,Wunderground v.1.15,2013-01-25 02:29:00,
2013-01-24 21:30:00,29.3,10.1,30.35,ENE,61,1.0,2.0,44,0.00,,,0.00,Wunderground v.1.15,2013-01-25 02:30:00,
2013-01-24 21:32:00,29.2,10.0,30.35,ENE,61,0.0,2.0,44,0.00,,,0.00,Wunderground v.1.15,2013-01-25 02:32:00,
2013-01-24 21:35:00,29.2,10.0,30.36,ENE,60,1.0,3.0,44,0.00,,,0.00,Wunderground v.1.15,2013-01-25 02:35:00,
2013-01-24 21:36:00,29.2,10.0,30.36,ENE,60,0.0,3.0,44,0.00,,,0.00,Wunderground v.1.15,2013-01-25 02:36:00,
2013-01-24 21:37:00,29.2,10.0,30.36,ENE,61,0.0,3.0,44,0.00,,,0.00,Wunderground v.1.15,2013-01-25 02:37:00,
2013-01-24 21:40:00,29.1,10.4,30.37,ENE,60,1.0,1.0,45,0.00,,,0.00,Wunderground v.1.15,2013-01-25 02:40:00,
2013-01-24 21:42:00,29.1,10.9,30.36,ENE,61,0.0,1.0,46,0.00,,,0.00,Wunderground v.1.15,2013-01-25 02:42:00,
2013-01-24 21:43:00,29.1,9.9,30.36,ENE,61,0.0,1.0,44,0.00,,,0.00,Wunderground v.1.15,2013-01-25 02:43:00,
2013-01-24 21:45:00,29.0,10.3,30.36,ENE,60,2.0,2.0,45,0.00,,,0.00,Wunderground v.1.15,2013-01-25 02:45:00,
2013-01-24 21:47:00,29.0,9.8,30.36,ENE,60,2.0,4.0,44,0.00,,,0.00,Wunderground v.1.15,2013-01-25 02:47:00,
2013-01-24 21:48:00,29.0,9.8,30.36,ENE,70,1.0,4.0,44,0.00,,,0.00,Wunderground v.1.15,2013-01-25 02:48:00,
2013-01-24 21:50:00,29.0,9.3,30.36,ENE,70,0.0,1.0,43,0.00,,,0.00,Wunderground v.1.15,2013-01-25 02:50:00,
2013-01-24 21:52:00,29.0,9.8,30.35,ENE,70,0.0,2.0,44,0.00,,,0.00,Wunderground v.1.15,2013-01-25 02:52:00,
2013-01-24 21:53:00,29.0,9.8,30.35,ENE,70,0.0,2.0,44,0.00,,,0.00,Wunderground v.1.15,2013-01-25 02:53:00,
2013-01-24 21:55:00,29.0,9.8,30.35,ENE,69,2.0,3.0,44,0.00,,,0.00,Wunderground v.1.15,2013-01-25 02:55:00,
2013-01-24 21:57:00,29.0,9.8,30.35,ENE,70,1.0,3.0,44,0.00,,,0.00,Wunderground v.1.15,2013-01-25 02:57:00,
2013-01-24 21:58:00,29.0,9.8,30.35,ENE,70,1.0,3.0,44,0.00,,,0.00,Wunderground v.1.15,2013-01-25 02:58:00,
2013-01-24 21:59:00,29.0,9.8,30.35,ENE,70,0.0,3.0,44,0.00,,,0.00,Wunderground v.1.15,2013-01-25 02:59:00,
2013-01-24 22:00:00,28.9,9.7,30.35,ENE,70,0.0,1.0,44,0.00,,,0.00,Wunderground v.1.15,2013-01-25 03:00:00,
2013-01-24 22:02:00,28.9,9.7,30.35,ENE,69,1.0,3.0,44,0.00,,,0.00,Wunderground v.1.15,2013-01-25 03:02:00,
2013-01-24 22:03:00,28.9,9.7,30.35,ENE,69,1.0,3.0,44,0.00,,,0.00,Wunderground v.1.15,2013-01-25 03:03:00,
2013-01-24 22:04:00,28.9,9.7,30.34,ENE,69,1.0,3.0,44,0.00,,,0.00,Wunderground v.1.15,2013-01-25 03:04:00,
2013-01-24 22:05:00,28.8,10.1,30.34,ENE,70,0.0,3.0,45,0.00,,,0.00,Wunderground v.1.15,2013-01-25 03:05:00,
2013-01-24 22:08:00,28.8,10.1,30.34,ENE,70,0.0,3.0,45,0.00,,,0.00,Wunderground v.1.15,2013-01-25 03:08:00,
2013-01-24 22:09:00,28.7,10.0,30.35,ENE,70,0.0,3.0,45,0.00,,,0.00,Wunderground v.1.15,2013-01-25 03:09:00,
2013-01-24 22:10:00,28.7,10.0,30.34,ENE,70,1.0,3.0,45,0.00,,,0.00,Wunderground v.1.15,2013-01-25 03:10:00,
2013-01-24 22:13:00,28.6,9.9,30.34,ENE,70,0.0,3.0,45,0.00,,,0.00,Wunderground v.1.15,2013-01-25 03:13:00,
2013-01-24 22:14:00,28.5,9.8,30.34,ENE,69,0.0,3.0,45,0.00,,,0.00,Wunderground v.1.15,2013-01-25 03:14:00,
2013-01-24 22:16:00,28.5,9.8,30.34,ENE,70,2.0,3.0,45,0.00,,,0.00,Wunderground v.1.15,2013-01-25 03:16:00,
2013-01-24 22:18:00,28.4,9.7,30.34,ENE,69,0.0,3.0,45,0.00,,,0.00,Wunderground v.1.15,2013-01-25 03:18:00,
2013-01-24 22:19:00,28.4,9.7,30.34,ENE,69,2.0,3.0,45,0.00,,,0.00,Wunderground v.1.15,2013-01-25 03:19:00,
2013-01-24 22:21:00,28.4,10.2,30.34,ENE,70,0.0,1.0,46,0.00,,,0.00,Wunderground v.1.15,2013-01-25 03:21:00,
2013-01-24 22:23:00,28.3,10.1,30.34,ENE,70,0.0,1.0,46,0.00,,,0.00,Wunderground v.1.15,2013-01-25 03:23:00,
2013-01-24 22:24:00,28.3,10.1,30.34,ENE,70,0.0,1.0,46,0.00,,,0.00,Wunderground v.1.15,2013-01-25 03:24:00,
2013-01-24 22:26:00,28.3,10.6,30.34,ENE,70,0.0,1.0,47,0.00,,,0.00,Wunderground v.1.15,2013-01-25 03:26:00,
2013-01-24 22:28:00,28.2,10.0,30.35,ENE,70,0.0,2.0,46,0.00,,,0.00,Wunderground v.1.15,2013-01-25 03:28:00,
2013-01-24 22:29:00,28.2,10.5,30.35,ENE,70,0.0,2.0,47,0.00,,,0.00,Wunderground v.1.15,2013-01-25 03:29:00,
2013-01-24 22:31:00,28.1,10.4,30.35,ENE,70,0.0,3.0,47,0.00,,,0.00,Wunderground v.1.15,2013-01-25 03:31:00,
2013-01-24 22:33:00,28.1,10.9,30.35,ENE,69,0.0,3.0,48,0.00,,,0.00,Wunderground v.1.15,2013-01-25 03:33:00,
2013-01-24 22:34:00,28.1,10.9,30.35,ENE,70,0.0,3.0,48,0.00,,,0.00,Wunderground v.1.15,2013-01-25 03:34:00,
2013-01-24 22:36:00,28.0,10.8,30.35,ENE,69,0.0,3.0,48,0.00,,,0.00,Wunderground v.1.15,2013-01-25 03:36:00,
2013-01-24 22:38:00,27.9,10.7,30.35,ENE,70,0.0,3.0,48,0.00,,,0.00,Wunderground v.1.15,2013-01-25 03:38:00,
2013-01-24 22:39:00,27.9,10.7,30.35,ENE,69,0.0,3.0,48,0.00,,,0.00,Wunderground v.1.15,2013-01-25 03:39:00,
2013-01-24 22:42:00,27.9,10.7,30.35,ENE,70,0.0,0.0,48,0.00,,,0.00,Wunderground v.1.15,2013-01-25 03:42:00,
2013-01-24 22:43:00,27.9,10.7,30.35,ENE,70,0.0,1.0,48,0.00,,,0.00,Wunderground v.1.15,2013-01-25 03:43:00,
2013-01-24 22:44:00,27.9,10.7,30.35,ENE,69,1.0,1.0,48,0.00,,,0.00,Wunderground v.1.15,2013-01-25 03:44:00,
2013-01-24 22:47:00,27.9,10.7,30.35,ENE,70,0.0,2.0,48,0.00,,,0.00,Wunderground v.1.15,2013-01-25 03:47:00,
2013-01-24 22:48:00,27.9,10.7,30.35,ENE,69,0.0,3.0,48,0.00,,,0.00,Wunderground v.1.15,2013-01-25 03:48:00,
2013-01-24 22:49:00,27.9,10.7,30.35,ENE,69,2.0,3.0,48,0.00,,,0.00,Wunderground v.1.15,2013-01-25 03:49:00,
2013-01-24 22:52:00,27.9,10.2,30.36,ENE,70,1.0,2.0,47,0.00,,,0.00,Wunderground v.1.15,2013-01-25 03:52:00,
2013-01-24 22:54:00,28.0,10.8,30.36,ENE,70,0.0,3.0,48,0.00,,,0.00,Wunderground v.1.15,2013-01-25 03:54:00,
2013-01-24 22:55:00,28.0,10.8,30.36,ENE,70,0.0,3.0,48,0.00,,,0.00,Wunderground v.1.15,2013-01-25 03:55:00,
2013-01-24 22:57:00,28.0,10.3,30.36,ENE,69,1.0,3.0,47,0.00,,,0.00,Wunderground v.1.15,2013-01-25 03:57:00,
2013-01-24 22:59:00,28.0,10.8,30.36,ENE,69,0.0,3.0,48,0.00,,,0.00,Wunderground v.1.15,2013-01-25 03:59:00,
2013-01-24 23:00:00,28.0,10.8,30.36,ENE,70,0.0,0.0,48,0.00,,,0.00,Wunderground v.1.15,2013-01-25 04:00:00,
2013-01-24 23:01:00,28.0,10.3,30.36,ENE,70,0.0,0.0,47,0.00,,,0.00,Wunderground v.1.15,2013-01-25 04:01:00,
2013-01-24 23:02:00,28.0,10.3,30.36,ENE,70,0.0,0.0,47,0.00,,,0.00,Wunderground v.1.15,2013-01-25 04:02:00,
2013-01-24 23:05:00,28.0,10.8,30.36,ENE,70,0.0,2.0,48,0.00,,,0.00,Wunderground v.1.15,2013-01-25 04:05:00,
2013-01-24 23:06:00,28.0,10.3,30.36,ENE,69,0.0,2.0,47,0.00,,,0.00,Wunderground v.1.15,2013-01-25 04:06:00,
2013-01-24 23:08:00,27.9,10.2,30.36,ENE,70,0.0,2.0,47,0.00,,,0.00,Wunderground v.1.15,2013-01-25 04:08:00,
2013-01-24 23:10:00,27.9,10.2,30.36,ENE,69,0.0,0.0,47,0.00,,,0.00,Wunderground v.1.15,2013-01-25 04:10:00,
2013-01-24 23:11:00,27.8,10.2,30.36,ENE,70,0.0,0.0,47,0.00,,,0.00,Wunderground v.1.15,2013-01-25 04:11:00,
2013-01-24 23:13:00,27.8,10.2,30.36,ENE,70,0.0,0.0,47,0.00,,,0.00,Wunderground v.1.15,2013-01-25 04:13:00,
2013-01-24 23:15:00,27.7,10.1,30.36,ENE,70,0.0,1.0,47,0.00,,,0.00,Wunderground v.1.15,2013-01-25 04:15:00,
2013-01-24 23:16:00,27.7,9.6,30.36,ENE,69,0.0,1.0,46,0.00,,,0.00,Wunderground v.1.15,2013-01-25 04:16:00,
2013-01-24 23:18:00,27.6,9.5,30.36,ENE,70,0.0,1.0,46,0.00,,,0.00,Wunderground v.1.15,2013-01-25 04:18:00,
2013-01-24 23:20:00,27.6,10.0,30.36,ENE,70,0.0,0.0,47,0.00,,,0.00,Wunderground v.1.15,2013-01-25 04:20:00,
2013-01-24 23:22:00,27.5,10.4,30.36,ENE,69,0.0,0.0,48,0.00,,,0.00,Wunderground v.1.15,2013-01-25 04:22:00,
2013-01-24 23:23:00,27.5,10.8,30.35,ENE,69,0.0,0.0,49,0.00,,,0.00,Wunderground v.1.15,2013-01-25 04:23:00,
2013-01-24 23:26:00,27.4,11.2,30.35,ENE,70,0.0,1.0,50,0.00,,,0.00,Wunderground v.1.15,2013-01-25 04:26:00,
2013-01-24 23:27:00,27.4,10.3,30.35,ENE,67,0.0,5.0,48,0.00,,,0.00,Wunderground v.1.15,2013-01-25 04:27:00,
2013-01-24 23:28:00,27.4,10.3,30.35,ENE,67,1.0,5.0,48,0.00,,,0.00,Wunderground v.1.15,2013-01-25 04:28:00,
2013-01-24 23:31:00,27.4,11.2,30.34,ENE,67,0.0,2.0,50,0.00,,,0.00,Wunderground v.1.15,2013-01-25 04:31:00,
2013-01-24 23:32:00,27.4,11.2,30.34,ENE,67,0.0,2.0,50,0.00,,,0.00,Wunderground v.1.15,2013-01-25 04:32:00,
2013-01-24 23:33:00,27.4,11.2,30.34,ENE,67,2.0,2.0,50,0.00,,,0.00,Wunderground v.1.15,2013-01-25 04:33:00,
2013-01-24 23:36:00,27.4,11.2,30.34,ENE,67,2.0,2.0,50,0.00,,,0.00,Wunderground v.1.15,2013-01-25 04:36:00,
2013-01-24 23:37:00,27.4,11.2,30.34,ENE,67,4.0,4.0,50,0.00,,,0.00,Wunderground v.1.15,2013-01-25 04:37:00,
2013-01-24 23:38:00,27.5,11.3,30.34,ENE,67,1.0,4.0,50,0.00,,,0.00,Wunderground v.1.15,2013-01-25 04:38:00,
2013-01-24 23:41:00,27.5,11.7,30.34,ENE,67,2.0,3.0,51,0.00,,,0.00,Wunderground v.1.15,2013-01-25 04:41:00,
2013-01-24 23:42:00,27.5,11.7,30.34,ENE,67,1.0,4.0,51,0.00,,,0.00,Wunderground v.1.15,2013-01-25 04:42:00,
2013-01-24 23:43:00,27.5,11.7,30.34,NE,44,4.0,8.0,51,0.00,,,0.00,Wunderground v.1.15,2013-01-25 04:43:00,
2013-01-24 23:44:00,27.5,11.3,30.34,NE,44,3.0,8.0,50,0.00,,,0.00,Wunderground v.1.15,2013-01-25 04:44:00,
2013-01-24 23:46:00,27.6,12.2,30.33,NE,45,0.0,8.0,52,0.00,,,0.00,Wunderground v.1.15,2013-01-25 04:46:00,
2013-01-24 23:47:00,27.6,12.2,30.33,NE,45,2.0,8.0,52,0.00,,,0.00,Wunderground v.1.15,2013-01-25 04:47:00,
2013-01-24 23:48:00,27.6,11.4,30.33,NE,45,0.0,8.0,50,0.00,,,0.00,Wunderground v.1.15,2013-01-25 04:48:00,
2013-01-24 23:49:00,27.7,11.5,30.33,NE,46,2.0,2.0,50,0.00,,,0.00,Wunderground v.1.15,2013-01-25 04:49:00,
2013-01-24 23:52:00,27.7,11.0,30.33,NE,47,4.0,5.0,49,0.00,,,0.00,Wunderground v.1.15,2013-01-25 04:52:00,
2013-01-24 23:53:00,27.8,11.5,30.32,NE,55,3.0,5.0,50,0.00,,,0.00,Wunderground v.1.15,2013-01-25 04:53:00,
2013-01-24 23:54:00,27.9,10.7,30.32,NE,50,2.0,7.0,48,0.00,,,0.00,Wunderground v.1.15,2013-01-25 04:54:00,
2013-01-24 23:57:00,28.2,11.0,30.31,NE,56,3.0,7.0,48,0.00,,,0.00,Wunderground v.1.15,2013-01-25 04:57:00,
2013-01-24 23:58:00,28.3,10.6,30.32,NE,55,6.0,7.0,47,0.00,,,0.00,Wunderground v.1.15,2013-01-25 04:58:00,